Wetterdaten: Mittwoch, 05.01.2022
Datum Zeit Temp. Aussen Temp. o. S. Temp +5cm Feuchte Auss Luftdruck Regen Sonnenschein Regendauer Solar Windben Empfang
05.01.2022 00:00 3,6 C 2,8 C 1,7 C 95 % 1000,7 hPa 0,0 l/m 0 min 2 min 0 W/m 22,5 km/h (4 Bft) 97,87 %
05.01.2022 00:02 3,6 C 2,8 C 1,7 C 95 % 1000,7 hPa 0,0 l/m 0 min 2 min 0 W/m 12,9 km/h (3 Bft) 97,30 %
05.01.2022 00:04 3,6 C 2,8 C 1,7 C 95 % 1000,7 hPa 0,0 l/m 0 min 2 min 0 W/m 9,7 km/h (2 Bft) 97,87 %
05.01.2022 00:08 3,6 C 2,8 C 1,7 C 95 % 1000,7 hPa 0,0 l/m 0 min 4 min 0 W/m 19,3 km/h (3 Bft) 95,79 %
05.01.2022 00:10 3,5 C 2,8 C 1,7 C 95 % 1000,7 hPa 0,0 l/m 0 min 2 min 0 W/m 12,9 km/h (3 Bft) 97,87 %
05.01.2022 00:12 3,5 C 2,8 C 1,7 C 95 % 1000,7 hPa 0,2 l/m 0 min 2 min 0 W/m 16,1 km/h (3 Bft) 97,87 %
05.01.2022 00:14 3,4 C 2,8 C 1,1 C 95 % 1000,7 hPa 0,0 l/m 0 min 2 min 0 W/m 16,1 km/h (3 Bft) 95,74 %
05.01.2022 00:16 3,4 C 2,8 C 1,7 C 95 % 1000,7 hPa 0,0 l/m 0 min 2 min 0 W/m 12,9 km/h (3 Bft) 95,74 %
05.01.2022 00:18 3,4 C 2,8 C 1,7 C 95 % 1000,7 hPa 0,0 l/m 0 min 2 min 0 W/m 9,7 km/h (2 Bft) 93,62 %
05.01.2022 00:20 3,4 C 2,8 C 1,7 C 95 % 1000,7 hPa 0,0 l/m 0 min 2 min 0 W/m 9,7 km/h (2 Bft) 95,65 %
05.01.2022 00:22 3,4 C 2,8 C 1,7 C 95 % 1000,7 hPa 0,0 l/m 0 min 2 min 0 W/m 9,7 km/h (2 Bft) 95,74 %
05.01.2022 00:24 3,4 C 2,8 C 1,7 C 95 % 1000,7 hPa 0,0 l/m 0 min 2 min 0 W/m 9,7 km/h (2 Bft) 93,62 %
05.01.2022 00:26 3,4 C 2,8 C 1,7 C 95 % 1000,7 hPa 0,0 l/m 0 min 2 min 0 W/m 6,4 km/h (2 Bft) 93,62 %
05.01.2022 00:28 3,4 C 2,8 C 1,7 C 95 % 1000,7 hPa 0,0 l/m 0 min 2 min 0 W/m 9,7 km/h (2 Bft) 95,74 %
05.01.2022 00:30 3,4 C 2,8 C 1,7 C 95 % 1000,8 hPa 0,0 l/m 0 min 2 min 0 W/m 6,4 km/h (2 Bft) 93,62 %
05.01.2022 00:32 3,4 C 2,8 C 1,7 C 95 % 1000,8 hPa 0,0 l/m 0 min 2 min 0 W/m 6,4 km/h (2 Bft) 95,65 %
05.01.2022 00:34 3,4 C 2,8 C 1,7 C 95 % 1000,8 hPa 0,0 l/m 0 min 2 min 0 W/m 6,4 km/h (2 Bft) 97,87 %
05.01.2022 00:36 3,4 C 2,8 C 1,7 C 95 % 1000,8 hPa 0,2 l/m 0 min 2 min 0 W/m 6,4 km/h (2 Bft) 97,87 %
05.01.2022 00:38 3,4 C 2,8 C 1,7 C 95 % 1000,9 hPa 0,0 l/m 0 min 2 min 0 W/m 9,7 km/h (2 Bft) 95,74 %
05.01.2022 00:43 3,4 C 2,8 C 1,7 C 96 % 1000,9 hPa 0,0 l/m 0 min 5 min 0 W/m 12,9 km/h (3 Bft) 100,00 %
05.01.2022 00:44 3,4 C 2,8 C 1,7 C 96 % 1000,9 hPa 0,0 l/m 0 min 1 min 0 W/m 12,9 km/h (3 Bft) 100,00 %
05.01.2022 00:46 3,4 C 2,8 C 1,7 C 96 % 1000,9 hPa 0,0 l/m 0 min 2 min 0 W/m 12,9 km/h (3 Bft) 97,83 %
05.01.2022 00:48 3,4 C 2,8 C 1,7 C 96 % 1000,8 hPa 0,0 l/m 0 min 2 min 0 W/m 12,9 km/h (3 Bft) 95,74 %
05.01.2022 00:53 3,4 C 2,8 C 1,7 C 96 % 1001,0 hPa 0,0 l/m 0 min 5 min 0 W/m 12,9 km/h (3 Bft) 100,00 %
05.01.2022 00:54 3,4 C 2,8 C 1,7 C 96 % 1001,0 hPa 0,0 l/m 0 min 1 min 0 W/m 6,4 km/h (2 Bft) 95,83 %
05.01.2022 00:56 3,4 C 2,8 C 1,7 C 96 % 1000,9 hPa 0,0 l/m 0 min 2 min 0 W/m 16,1 km/h (3 Bft) 97,83 %
05.01.2022 00:58 3,4 C 2,8 C 1,7 C 96 % 1001,0 hPa 0,2 l/m 0 min 2 min 0 W/m 12,9 km/h (3 Bft) 97,87 %
05.01.2022 01:00 3,4 C 2,8 C 1,7 C 96 % 1001,0 hPa 0,0 l/m 0 min 2 min 0 W/m 12,9 km/h (3 Bft) 97,87 %
05.01.2022 01:02 3,4 C 2,8 C 1,7 C 96 % 1000,9 hPa 0,0 l/m 0 min 2 min 0 W/m 16,1 km/h (3 Bft) 91,49 %
05.01.2022 01:04 3,3 C 2,8 C 1,7 C 96 % 1001,0 hPa 0,0 l/m 0 min 2 min 0 W/m 9,7 km/h (2 Bft) 100,00 %
05.01.2022 01:06 3,3 C 2,8 C 1,7 C 96 % 1001,0 hPa 0,0 l/m 0 min 2 min 0 W/m 9,7 km/h (2 Bft) 100,00 %
05.01.2022 01:08 3,3 C 2,8 C 1,7 C 96 % 1001,0 hPa 0,0 l/m 0 min 0 min 0 W/m 12,9 km/h (3 Bft) 100,00 %
05.01.2022 01:10 3,3 C 2,8 C 1,7 C 96 % 1001,0 hPa 0,0 l/m 0 min 2 min 0 W/m 12,9 km/h (3 Bft) 100,00 %
05.01.2022 01:12 3,3 C 2,8 C 1,7 C 96 % 1001,1 hPa 0,0 l/m 0 min 2 min 0 W/m 16,1 km/h (3 Bft) 100,00 %
05.01.2022 01:14 3,3 C 2,8 C 1,7 C 96 % 1001,2 hPa 0,0 l/m 0 min 2 min 0 W/m 6,4 km/h (2 Bft) 100,00 %
05.01.2022 01:16 3,2 C 2,2 C 1,7 C 96 % 1001,2 hPa 0,0 l/m 0 min 2 min 0 W/m 12,9 km/h (3 Bft) 100,00 %
05.01.2022 01:18 3,2 C 2,2 C 1,7 C 96 % 1001,2 hPa 0,0 l/m 0 min 2 min 0 W/m 12,9 km/h (3 Bft) 100,00 %
05.01.2022 01:20 3,2 C 2,2 C 1,7 C 96 % 1001,2 hPa 0,2 l/m 0 min 2 min 0 W/m 6,4 km/h (2 Bft) 100,00 %
05.01.2022 01:22 3,2 C 2,2 C 1,1 C 96 % 1001,0 hPa 0,0 l/m 0 min 2 min 0 W/m 6,4 km/h (2 Bft) 76,60 %
05.01.2022 01:24 3,2 C 2,2 C 1,1 C 96 % 1001,1 hPa 0,0 l/m 0 min 2 min 0 W/m 6,4 km/h (2 Bft) 78,05 %
05.01.2022 01:26 3,2 C 2,2 C 1,1 C 96 % 1001,0 hPa 0,0 l/m 0 min 2 min 0 W/m 6,4 km/h (2 Bft) 100,00 %
05.01.2022 01:28 3,2 C 2,2 C 1,1 C 96 % 1000,9 hPa 0,0 l/m 0 min 2 min 0 W/m 3,2 km/h (1 Bft) 100,00 %
05.01.2022 01:30 3,2 C 2,2 C 1,7 C 96 % 1000,9 hPa 0,0 l/m 0 min 0 min 0 W/m 3,2 km/h (1 Bft) 97,87 %
05.01.2022 01:32 3,2 C 2,2 C 1,1 C 96 % 1001,0 hPa 0,0 l/m 0 min 0 min 0 W/m 6,4 km/h (2 Bft) 100,00 %
05.01.2022 01:34 3,2 C 2,2 C 1,7 C 96 % 1001,0 hPa 0,0 l/m 0 min 0 min 0 W/m 3,2 km/h (1 Bft) 100,00 %
05.01.2022 01:36 3,2 C 2,2 C 1,7 C 96 % 1001,0 hPa 0,0 l/m 0 min 0 min 0 W/m 3,2 km/h (1 Bft) 100,00 %
05.01.2022 01:38 3,2 C 2,2 C 1,7 C 96 % 1001,1 hPa 0,0 l/m 0 min 0 min 0 W/m 3,2 km/h (1 Bft) 100,00 %
05.01.2022 01:40 3,1 C 2,2 C 1,1 C 96 % 1001,2 hPa 0,0 l/m 0 min 0 min 0 W/m 3,2 km/h (1 Bft) 100,00 %
05.01.2022 01:42 3,1 C 2,2 C 1,7 C 96 % 1001,2 hPa 0,0 l/m 0 min 0 min 0 W/m 12,9 km/h (3 Bft) 100,00 %
05.01.2022 01:44 3,1 C 2,2 C 1,7 C 96 % 1001,1 hPa 0,0 l/m 0 min 0 min 0 W/m 12,9 km/h (3 Bft) 97,83 %
05.01.2022 01:46 3,1 C 2,2 C 1,7 C 96 % 1001,1 hPa 0,0 l/m 0 min 0 min 0 W/m 12,9 km/h (3 Bft) 100,00 %
05.01.2022 01:48 3,1 C 2,2 C 1,7 C 96 % 1001,1 hPa 0,0 l/m 0 min 0 min 0 W/m 12,9 km/h (3 Bft) 97,87 %
05.01.2022 01:50 3,1 C 2,2 C 1,7 C 96 % 1001,1 hPa 0,0 l/m 0 min 0 min 0 W/m 3,2 km/h (1 Bft) 97,87 %
05.01.2022 01:52 3,1 C 2,2 C 1,7 C 97 % 1001,0 hPa 0,0 l/m 0 min 0 min 0 W/m 3,2 km/h (1 Bft) 97,87 %
05.01.2022 01:54 3,1 C 2,8 C 1,7 C 97 % 1001,2 hPa 0,0 l/m 0 min 0 min 0 W/m 9,7 km/h (2 Bft) 100,00 %
05.01.2022 01:56 3,1 C 2,2 C 1,7 C 97 % 1001,0 hPa 0,0 l/m 0 min 0 min 0 W/m 6,4 km/h (2 Bft) 97,87 %
05.01.2022 01:58 3,1 C 2,8 C 1,7 C 97 % 1001,1 hPa 0,0 l/m 0 min 0 min 0 W/m 6,4 km/h (2 Bft) 97,87 %
05.01.2022 02:00 3,1 C 2,8 C 1,7 C 96 % 1001,2 hPa 0,0 l/m 0 min 0 min 0 W/m 16,1 km/h (3 Bft) 100,00 %
05.01.2022 02:02 3,1 C 2,2 C 1,7 C 96 % 1001,1 hPa 0,0 l/m 0 min 0 min 0 W/m 9,7 km/h (2 Bft) 100,00 %
05.01.2022 02:04 3,1 C 2,8 C 1,7 C 96 % 1001,1 hPa 0,0 l/m 0 min 0 min 0 W/m 12,9 km/h (3 Bft) 100,00 %
05.01.2022 02:06 3,1 C 2,8 C 1,7 C 97 % 1001,1 hPa 0,0 l/m 0 min 0 min 0 W/m 6,4 km/h (2 Bft) 100,00 %
05.01.2022 02:08 3,1 C 2,8 C 1,7 C 97 % 1001,1 hPa 0,0 l/m 0 min 0 min 0 W/m 12,9 km/h (3 Bft) 97,87 %
05.01.2022 02:10 3,1 C 2,8 C 1,7 C 97 % 1001,2 hPa 0,0 l/m 0 min 0 min 0 W/m 12,9 km/h (3 Bft) 97,87 %
05.01.2022 02:12 3,1 C 2,8 C 1,7 C 97 % 1001,3 hPa 0,0 l/m 0 min 0 min 0 W/m 12,9 km/h (3 Bft) 97,87 %
05.01.2022 02:14 3,1 C 2,8 C 1,7 C 97 % 1001,3 hPa 0,0 l/m 0 min 0 min 0 W/m 6,4 km/h (2 Bft) 100,00 %
05.01.2022 02:16 3,1 C 2,2 C 1,7 C 97 % 1001,3 hPa 0,0 l/m 0 min 0 min 0 W/m 6,4 km/h (2 Bft) 95,74 %
05.01.2022 02:18 3,1 C 2,2 C 1,7 C 97 % 1001,3 hPa 0,0 l/m 0 min 0 min 0 W/m 6,4 km/h (2 Bft) 48,72 %
05.01.2022 02:20 3,1 C 2,2 C 1,7 C 97 % 1001,3 hPa 0,0 l/m 0 min 0 min 0 W/m 12,9 km/h (3 Bft) 97,83 %
05.01.2022 02:22 3,1 C 2,2 C 1,7 C 97 % 1001,3 hPa 0,0 l/m 0 min 0 min 0 W/m 12,9 km/h (3 Bft) 97,87 %
05.01.2022 02:24 3,1 C 2,2 C 1,1 C 97 % 1001,3 hPa 0,0 l/m 0 min 0 min 0 W/m 6,4 km/h (2 Bft) 97,87 %
05.01.2022 02:26 3,1 C 2,2 C 1,7 C 97 % 1001,3 hPa 0,0 l/m 0 min 0 min 0 W/m 12,9 km/h (3 Bft) 97,87 %
05.01.2022 02:28 3,1 C 2,2 C 1,7 C 97 % 1001,3 hPa 0,0 l/m 0 min 0 min 0 W/m 12,9 km/h (3 Bft) 97,87 %
05.01.2022 02:30 3,1 C 2,2 C 1,1 C 97 % 1001,3 hPa 0,0 l/m 0 min 0 min 0 W/m 12,9 km/h (3 Bft) 97,83 %
05.01.2022 02:32 3,1 C 2,2 C 1,1 C 97 % 1001,3 hPa 0,0 l/m 0 min 0 min 0 W/m 6,4 km/h (2 Bft) 95,74 %
05.01.2022 02:34 3,1 C 2,2 C 1,1 C 97 % 1001,3 hPa 0,0 l/m 0 min 0 min 0 W/m 12,9 km/h (3 Bft) 97,87 %
05.01.2022 02:36 3,1 C 2,2 C 1,1 C 97 % 1001,4 hPa 0,0 l/m 0 min 0 min 0 W/m 9,7 km/h (2 Bft) 97,87 %
05.01.2022 02:38 3,0 C 2,2 C 1,1 C 97 % 1001,4 hPa 0,0 l/m 0 min 0 min 0 W/m 16,1 km/h (3 Bft) 97,87 %
05.01.2022 02:40 3,0 C 2,2 C 1,1 C 97 % 1001,4 hPa 0,0 l/m 0 min 0 min 0 W/m 6,4 km/h (2 Bft) 100,00 %
05.01.2022 02:42 3,0 C 2,2 C 1,1 C 97 % 1001,4 hPa 0,0 l/m 0 min 0 min 0 W/m 16,1 km/h (3 Bft) 97,83 %
05.01.2022 02:44 3,0 C 2,2 C 1,1 C 97 % 1001,5 hPa 0,0 l/m 0 min 0 min 0 W/m 6,4 km/h (2 Bft) 100,00 %
05.01.2022 02:46 3,0 C 2,2 C 1,1 C 97 % 1001,5 hPa 0,0 l/m 0 min 0 min 0 W/m 12,9 km/h (3 Bft) 97,87 %
05.01.2022 02:48 2,9 C 2,2 C 1,1 C 97 % 1001,5 hPa 0,0 l/m 0 min 0 min 0 W/m 12,9 km/h (3 Bft) 97,87 %
05.01.2022 02:50 2,9 C 2,2 C 1,1 C 97 % 1001,5 hPa 0,0 l/m 0 min 0 min 0 W/m 12,9 km/h (3 Bft) 95,74 %
05.01.2022 02:52 2,9 C 2,2 C 1,1 C 97 % 1001,5 hPa 0,0 l/m 0 min 0 min 0 W/m 12,9 km/h (3 Bft) 95,74 %
05.01.2022 02:54 2,9 C 2,2 C 1,1 C 97 % 1001,5 hPa 0,0 l/m 0 min 0 min 0 W/m 12,9 km/h (3 Bft) 95,65 %
05.01.2022 02:56 2,8 C 2,2 C 1,1 C 97 % 1001,5 hPa 0,0 l/m 0 min 0 min 0 W/m 12,9 km/h (3 Bft) 93,62 %
05.01.2022 02:58 2,8 C 2,2 C 1,1 C 97 % 1001,5 hPa 0,0 l/m 0 min 0 min 0 W/m 9,7 km/h (2 Bft) 93,62 %
05.01.2022 03:00 2,8 C 2,2 C 1,1 C 97 % 1001,6 hPa 0,0 l/m 0 min 0 min 0 W/m 12,9 km/h (3 Bft) 95,74 %
05.01.2022 03:02 2,8 C 2,2 C 1,1 C 97 % 1001,6 hPa 0,0 l/m 0 min 0 min 0 W/m 12,9 km/h (3 Bft) 91,49 %
05.01.2022 03:04 2,8 C 2,2 C 1,1 C 97 % 1001,6 hPa 0,0 l/m 0 min 0 min 0 W/m 16,1 km/h (3 Bft) 95,74 %
05.01.2022 03:06 2,8 C 2,2 C 1,1 C 97 % 1001,6 hPa 0,0 l/m 0 min 0 min 0 W/m 12,9 km/h (3 Bft) 95,65 %
05.01.2022 03:08 2,7 C 2,2 C 1,1 C 97 % 1001,6 hPa 0,0 l/m 0 min 0 min 0 W/m 12,9 km/h (3 Bft) 95,74 %
05.01.2022 03:10 2,7 C 2,2 C 1,1 C 97 % 1001,7 hPa 0,0 l/m 0 min 0 min 0 W/m 19,3 km/h (3 Bft) 74,47 %
05.01.2022 03:12 2,7 C 2,2 C 1,1 C 97 % 1001,7 hPa 0,0 l/m 0 min 0 min 0 W/m 9,7 km/h (2 Bft) 71,74 %
05.01.2022 03:14 2,7 C 2,2 C 1,1 C 97 % 1001,7 hPa 0,0 l/m 0 min 0 min 0 W/m 9,7 km/h (2 Bft) 95,74 %
05.01.2022 03:16 2,7 C 2,2 C 1,1 C 97 % 1001,7 hPa 0,0 l/m 0 min 0 min 0 W/m 16,1 km/h (3 Bft) 95,74 %
05.01.2022 03:18 2,7 C 2,2 C 1,1 C 97 % 1001,7 hPa 0,0 l/m 0 min 0 min 0 W/m 16,1 km/h (3 Bft) 95,65 %
05.01.2022 03:20 2,7 C 2,2 C 1,1 C 97 % 1001,7 hPa 0,0 l/m 0 min 0 min 0 W/m 12,9 km/h (3 Bft) 93,62 %
05.01.2022 03:22 2,6 C 2,2 C 0,6 C 97 % 1001,7 hPa 0,0 l/m 0 min 0 min 0 W/m 12,9 km/h (3 Bft) 96,00 %
05.01.2022 03:24 2,6 C 1,7 C 0,6 C 97 % 1001,7 hPa 0,0 l/m 0 min 0 min 0 W/m 6,4 km/h (2 Bft) 95,74 %
05.01.2022 03:26 2,6 C 1,7 C 0,6 C 97 % 1001,7 hPa 0,0 l/m 0 min 0 min 0 W/m 9,7 km/h (2 Bft) 95,65 %
05.01.2022 03:28 2,6 C 1,7 C 1,1 C 97 % 1001,8 hPa 0,0 l/m 0 min 0 min 0 W/m 9,7 km/h (2 Bft) 93,62 %
05.01.2022 03:30 2,6 C 1,7 C 0,6 C 97 % 1001,8 hPa 0,0 l/m 0 min 0 min 0 W/m 12,9 km/h (3 Bft) 97,87 %
05.01.2022 03:32 2,6 C 1,7 C 1,1 C 97 % 1001,8 hPa 0,0 l/m 0 min 0 min 0 W/m 16,1 km/h (3 Bft) 97,87 %
05.01.2022 03:34 2,6 C 1,7 C 0,6 C 97 % 1001,8 hPa 0,0 l/m 0 min 0 min 0 W/m 16,1 km/h (3 Bft) 97,87 %
05.01.2022 03:36 2,6 C 1,7 C 0,6 C 97 % 1001,8 hPa 0,0 l/m 0 min 0 min 0 W/m 6,4 km/h (2 Bft) 95,74 %
05.01.2022 03:38 2,5 C 1,7 C 0,6 C 97 % 1001,8 hPa 0,0 l/m 0 min 0 min 0 W/m 16,1 km/h (3 Bft) 97,83 %
05.01.2022 03:40 2,4 C 1,7 C 0,6 C 97 % 1001,8 hPa 0,0 l/m 0 min 0 min 0 W/m 9,7 km/h (2 Bft) 97,87 %
05.01.2022 03:42 2,4 C 1,7 C 0,6 C 97 % 1001,8 hPa 0,0 l/m 0 min 0 min 0 W/m 16,1 km/h (3 Bft) 93,62 %
05.01.2022 03:44 2,4 C 1,7 C 0,6 C 97 % 1001,9 hPa 0,0 l/m 0 min 0 min 0 W/m 12,9 km/h (3 Bft) 97,87 %
05.01.2022 03:46 2,4 C 1,7 C 0,6 C 97 % 1001,9 hPa 0,0 l/m 0 min 0 min 0 W/m 16,1 km/h (3 Bft) 97,87 %
05.01.2022 03:48 2,4 C 1,7 C 0,6 C 97 % 1001,8 hPa 0,0 l/m 0 min 0 min 0 W/m 9,7 km/h (2 Bft) 95,74 %
05.01.2022 03:50 2,4 C 1,7 C 0,6 C 97 % 1001,9 hPa 0,0 l/m 0 min 0 min 0 W/m 12,9 km/h (3 Bft) 97,83 %
05.01.2022 03:52 2,3 C 1,7 C 0,6 C 97 % 1001,9 hPa 0,0 l/m 0 min 0 min 0 W/m 12,9 km/h (3 Bft) 95,74 %
05.01.2022 03:54 2,3 C 1,7 C 0,6 C 97 % 1001,9 hPa 0,0 l/m 0 min 0 min 0 W/m 12,9 km/h (3 Bft) 95,74 %
05.01.2022 03:56 2,3 C 1,7 C 0,6 C 97 % 1002,0 hPa 0,0 l/m 0 min 0 min 0 W/m 9,7 km/h (2 Bft) 95,74 %
05.01.2022 03:58 2,3 C 1,7 C 0,6 C 97 % 1002,0 hPa 0,0 l/m 0 min 0 min 0 W/m 19,3 km/h (3 Bft) 97,87 %
05.01.2022 04:00 2,2 C 1,7 C 0,6 C 97 % 1002,0 hPa 0,0 l/m 0 min 0 min 0 W/m 6,4 km/h (2 Bft) 95,74 %
05.01.2022 04:02 2,2 C 1,7 C 0,6 C 97 % 1002,1 hPa 0,0 l/m 0 min 0 min 0 W/m 12,9 km/h (3 Bft) 100,00 %
05.01.2022 04:04 2,2 C 1,7 C 0,6 C 97 % 1002,1 hPa 0,0 l/m 0 min 0 min 0 W/m 6,4 km/h (2 Bft) 93,62 %
05.01.2022 04:06 2,2 C 1,7 C 0,6 C 97 % 1002,1 hPa 0,0 l/m 0 min 0 min 0 W/m 9,7 km/h (2 Bft) 95,74 %
05.01.2022 04:08 2,2 C 1,7 C 0,6 C 97 % 1002,1 hPa 0,0 l/m 0 min 0 min 0 W/m 12,9 km/h (3 Bft) 93,62 %
05.01.2022 04:10 2,2 C 1,7 C 0,6 C 97 % 1002,1 hPa 0,0 l/m 0 min 0 min 0 W/m 12,9 km/h (3 Bft) 97,87 %
05.01.2022 04:12 2,1 C 1,7 C 0,6 C 97 % 1002,2 hPa 0,0 l/m 0 min 0 min 0 W/m 12,9 km/h (3 Bft) 97,87 %
05.01.2022 04:14 2,2 C 1,1 C 0,6 C 96 % 1002,3 hPa 0,0 l/m 0 min 0 min 0 W/m 6,4 km/h (2 Bft) 95,65 %
05.01.2022 04:16 2,1 C 1,7 C 0,6 C 96 % 1002,4 hPa 0,0 l/m 0 min 0 min 0 W/m 22,5 km/h (4 Bft) 97,87 %
05.01.2022 04:18 2,1 C 1,1 C 0,6 C 96 % 1002,3 hPa 0,0 l/m 0 min 0 min 0 W/m 6,4 km/h (2 Bft) 97,87 %
05.01.2022 04:20 2,1 C 1,1 C 0,0 C 96 % 1002,4 hPa 0,0 l/m 0 min 0 min 0 W/m 6,4 km/h (2 Bft) 97,87 %
05.01.2022 04:22 2,1 C 1,1 C 0,0 C 96 % 1002,5 hPa 0,0 l/m 0 min 0 min 0 W/m 19,3 km/h (3 Bft) 100,00 %
05.01.2022 04:24 2,0 C 1,1 C 0,0 C 96 % 1002,5 hPa 0,0 l/m 0 min 0 min 0 W/m 12,9 km/h (3 Bft) 100,00 %
05.01.2022 04:26 2,0 C 1,1 C 0,0 C 96 % 1002,4 hPa 0,0 l/m 0 min 0 min 0 W/m 12,9 km/h (3 Bft) 100,00 %
05.01.2022 04:28 1,9 C 1,1 C 0,0 C 96 % 1002,5 hPa 0,0 l/m 0 min 0 min 0 W/m 9,7 km/h (2 Bft) 100,00 %
05.01.2022 04:30 1,9 C 1,1 C 0,0 C 96 % 1002,5 hPa 0,0 l/m 0 min 0 min 0 W/m 6,4 km/h (2 Bft) 100,00 %
05.01.2022 04:32 1,9 C 1,1 C 0,0 C 96 % 1002,6 hPa 0,0 l/m 0 min 0 min 0 W/m 12,9 km/h (3 Bft) 97,87 %
05.01.2022 04:34 1,9 C 1,1 C 0,0 C 96 % 1002,6 hPa 0,0 l/m 0 min 0 min 0 W/m 16,1 km/h (3 Bft) 100,00 %
05.01.2022 04:36 1,9 C 1,1 C 0,0 C 96 % 1002,6 hPa 0,0 l/m 0 min 0 min 0 W/m 12,9 km/h (3 Bft) 97,83 %
05.01.2022 04:38 1,8 C 1,1 C 0,0 C 96 % 1002,6 hPa 0,0 l/m 0 min 0 min 0 W/m 12,9 km/h (3 Bft) 100,00 %
05.01.2022 04:40 1,8 C 1,1 C 0,0 C 96 % 1002,6 hPa 0,0 l/m 0 min 0 min 0 W/m 12,9 km/h (3 Bft) 100,00 %
05.01.2022 04:42 1,8 C 1,1 C 0,0 C 96 % 1002,7 hPa 0,0 l/m 0 min 0 min 0 W/m 12,9 km/h (3 Bft) 100,00 %
05.01.2022 04:44 1,8 C 1,1 C 0,0 C 96 % 1002,7 hPa 0,0 l/m 0 min 0 min 0 W/m 16,1 km/h (3 Bft) 100,00 %
05.01.2022 04:46 1,8 C 1,1 C 0,0 C 95 % 1002,7 hPa 0,0 l/m 0 min 0 min 0 W/m 12,9 km/h (3 Bft) 100,00 %
05.01.2022 04:48 1,8 C 1,1 C 0,0 C 95 % 1002,7 hPa 0,0 l/m 0 min 0 min 0 W/m 9,7 km/h (2 Bft) 100,00 %
05.01.2022 04:50 1,8 C 1,1 C 0,0 C 95 % 1002,7 hPa 0,0 l/m 0 min 0 min 0 W/m 12,9 km/h (3 Bft) 97,87 %
05.01.2022 04:52 1,8 C 1,1 C 0,0 C 95 % 1002,8 hPa 0,0 l/m 0 min 0 min 0 W/m 6,4 km/h (2 Bft) 97,87 %
05.01.2022 04:54 1,8 C 1,1 C 0,0 C 95 % 1002,8 hPa 0,0 l/m 0 min 0 min 0 W/m 12,9 km/h (3 Bft) 100,00 %
05.01.2022 04:56 1,8 C 1,1 C 0,0 C 95 % 1002,9 hPa 0,0 l/m 0 min 0 min 0 W/m 12,9 km/h (3 Bft) 100,00 %
05.01.2022 04:58 1,8 C 1,1 C 0,0 C 95 % 1002,9 hPa 0,0 l/m 0 min 0 min 0 W/m 16,1 km/h (3 Bft) 100,00 %
05.01.2022 05:00 1,8 C 1,1 C 0,0 C 95 % 1002,8 hPa 0,0 l/m 0 min 0 min 0 W/m 16,1 km/h (3 Bft) 97,83 %
05.01.2022 05:02 1,7 C 1,1 C 0,0 C 95 % 1002,9 hPa 0,0 l/m 0 min 0 min 0 W/m 22,5 km/h (4 Bft) 100,00 %
05.01.2022 05:04 1,7 C 1,1 C 0,0 C 95 % 1003,0 hPa 0,0 l/m 0 min 0 min 0 W/m 12,9 km/h (3 Bft) 100,00 %
05.01.2022 05:06 1,7 C 1,1 C 0,0 C 95 % 1003,0 hPa 0,0 l/m 0 min 0 min 0 W/m 12,9 km/h (3 Bft) 95,74 %
05.01.2022 05:08 1,7 C 1,1 C 0,0 C 95 % 1003,1 hPa 0,0 l/m 0 min 0 min 0 W/m 12,9 km/h (3 Bft) 95,74 %
05.01.2022 05:10 1,7 C 1,1 C 0,0 C 95 % 1003,1 hPa 0,0 l/m 0 min 0 min 0 W/m 12,9 km/h (3 Bft) 97,87 %
05.01.2022 05:12 1,7 C 1,1 C 0,0 C 95 % 1003,1 hPa 0,0 l/m 0 min 0 min 0 W/m 6,4 km/h (2 Bft) 95,65 %
05.01.2022 05:14 1,7 C 1,1 C 0,0 C 95 % 1003,1 hPa 0,0 l/m 0 min 0 min 0 W/m 16,1 km/h (3 Bft) 95,74 %
05.01.2022 05:16 1,7 C 1,1 C 0,0 C 95 % 1003,2 hPa 0,0 l/m 0 min 0 min 0 W/m 12,9 km/h (3 Bft) 97,87 %
05.01.2022 05:18 1,7 C 1,1 C 0,0 C 95 % 1003,2 hPa 0,0 l/m 0 min 0 min 0 W/m 16,1 km/h (3 Bft) 95,74 %
05.01.2022 05:20 1,6 C 1,1 C 0,0 C 95 % 1003,2 hPa 0,0 l/m 0 min 0 min 0 W/m 16,1 km/h (3 Bft) 97,87 %
05.01.2022 05:22 1,6 C 1,1 C -0,6 C 95 % 1003,3 hPa 0,0 l/m 0 min 0 min 0 W/m 12,9 km/h (3 Bft) 97,87 %
05.01.2022 05:24 1,6 C 1,1 C -0,6 C 94 % 1003,3 hPa 0,0 l/m 0 min 0 min 0 W/m 12,9 km/h (3 Bft) 97,83 %
05.01.2022 05:26 1,6 C 1,1 C -0,6 C 94 % 1003,3 hPa 0,0 l/m 0 min 0 min 0 W/m 12,9 km/h (3 Bft) 95,74 %
05.01.2022 05:28 1,6 C 1,1 C -0,6 C 94 % 1003,3 hPa 0,0 l/m 0 min 0 min 0 W/m 12,9 km/h (3 Bft) 97,87 %
05.01.2022 05:30 1,6 C 1,1 C -0,6 C 94 % 1003,3 hPa 0,0 l/m 0 min 0 min 0 W/m 12,9 km/h (3 Bft) 97,87 %
05.01.2022 05:32 1,6 C 1,1 C -0,6 C 94 % 1003,4 hPa 0,0 l/m 0 min 0 min 0 W/m 22,5 km/h (4 Bft) 97,87 %
05.01.2022 05:34 1,6 C 1,1 C -0,6 C 94 % 1003,3 hPa 0,0 l/m 0 min 0 min 0 W/m 16,1 km/h (3 Bft) 93,62 %
05.01.2022 05:36 1,6 C 0,6 C -0,6 C 94 % 1003,4 hPa 0,0 l/m 0 min 0 min 0 W/m 16,1 km/h (3 Bft) 95,65 %
05.01.2022 05:38 1,6 C 1,1 C -0,6 C 94 % 1003,4 hPa 0,0 l/m 0 min 0 min 0 W/m 19,3 km/h (3 Bft) 95,74 %
05.01.2022 05:40 1,6 C 0,6 C -0,6 C 94 % 1003,3 hPa 0,0 l/m 0 min 0 min 0 W/m 9,7 km/h (2 Bft) 93,62 %
05.01.2022 05:42 1,6 C 0,6 C -0,6 C 94 % 1003,5 hPa 0,0 l/m 0 min 0 min 0 W/m 12,9 km/h (3 Bft) 97,87 %
05.01.2022 05:44 1,6 C 0,6 C -0,6 C 94 % 1003,4 hPa 0,0 l/m 0 min 0 min 0 W/m 12,9 km/h (3 Bft) 95,74 %
05.01.2022 05:46 1,6 C 0,6 C -0,6 C 94 % 1003,5 hPa 0,0 l/m 0 min 0 min 0 W/m 9,7 km/h (2 Bft) 95,74 %
05.01.2022 05:48 1,5 C 0,6 C -0,6 C 94 % 1003,5 hPa 0,0 l/m 0 min 0 min 0 W/m 16,1 km/h (3 Bft) 97,83 %
05.01.2022 05:50 1,5 C 0,6 C -0,6 C 94 % 1003,4 hPa 0,0 l/m 0 min 0 min 0 W/m 12,9 km/h (3 Bft) 97,87 %
05.01.2022 05:52 1,5 C 0,6 C -0,6 C 94 % 1003,5 hPa 0,0 l/m 0 min 0 min 0 W/m 12,9 km/h (3 Bft) 97,87 %
05.01.2022 05:54 1,5 C 0,6 C -0,6 C 94 % 1003,5 hPa 0,0 l/m 0 min 0 min 0 W/m 12,9 km/h (3 Bft) 97,87 %
05.01.2022 05:56 1,4 C 0,6 C -0,6 C 94 % 1003,5 hPa 0,0 l/m 0 min 0 min 0 W/m 12,9 km/h (3 Bft) 97,87 %
05.01.2022 05:58 1,4 C 0,6 C -0,6 C 94 % 1003,5 hPa 0,0 l/m 0 min 0 min 0 W/m 12,9 km/h (3 Bft) 100,00 %
05.01.2022 06:00 1,4 C 0,6 C -0,6 C 94 % 1003,4 hPa 0,0 l/m 0 min 0 min 0 W/m 12,9 km/h (3 Bft) 95,74 %
05.01.2022 06:02 1,4 C 0,6 C -0,6 C 94 % 1003,4 hPa 0,0 l/m 0 min 0 min 0 W/m 6,4 km/h (2 Bft) 100,00 %
05.01.2022 06:04 1,4 C 0,6 C -0,6 C 94 % 1003,4 hPa 0,0 l/m 0 min 0 min 0 W/m 12,9 km/h (3 Bft) 100,00 %
05.01.2022 06:06 1,4 C 0,6 C -0,6 C 94 % 1003,5 hPa 0,0 l/m 0 min 0 min 0 W/m 19,3 km/h (3 Bft) 100,00 %
05.01.2022 06:08 1,4 C 0,6 C -0,6 C 94 % 1003,5 hPa 0,0 l/m 0 min 0 min 0 W/m 16,1 km/h (3 Bft) 100,00 %
05.01.2022 06:10 1,4 C 0,6 C -0,6 C 94 % 1003,5 hPa 0,0 l/m 0 min 0 min 0 W/m 19,3 km/h (3 Bft) 100,00 %
05.01.2022 06:12 1,4 C 0,6 C -0,6 C 94 % 1003,6 hPa 0,0 l/m 0 min 0 min 0 W/m 16,1 km/h (3 Bft) 100,00 %
05.01.2022 06:14 1,4 C 0,6 C -0,6 C 94 % 1003,6 hPa 0,0 l/m 0 min 0 min 0 W/m 22,5 km/h (4 Bft) 100,00 %
05.01.2022 06:16 1,4 C 1,1 C -0,6 C 94 % 1003,6 hPa 0,0 l/m 0 min 0 min 0 W/m 9,7 km/h (2 Bft) 95,74 %
05.01.2022 06:18 1,4 C 1,1 C -0,6 C 94 % 1003,7 hPa 0,0 l/m 0 min 0 min 0 W/m 16,1 km/h (3 Bft) 100,00 %
05.01.2022 06:20 1,4 C 1,1 C -0,6 C 93 % 1003,6 hPa 0,0 l/m 0 min 0 min 0 W/m 12,9 km/h (3 Bft) 100,00 %
05.01.2022 06:22 1,4 C 1,1 C -0,6 C 93 % 1003,6 hPa 0,0 l/m 0 min 0 min 0 W/m 25,7 km/h (4 Bft) 100,00 %
05.01.2022 06:24 1,4 C 1,1 C -0,6 C 93 % 1003,6 hPa 0,0 l/m 0 min 0 min 0 W/m 19,3 km/h (3 Bft) 100,00 %
05.01.2022 06:26 1,4 C 0,6 C -0,6 C 93 % 1003,5 hPa 0,0 l/m 0 min 0 min 0 W/m 12,9 km/h (3 Bft) 100,00 %
05.01.2022 06:28 1,4 C 0,6 C -0,6 C 93 % 1003,6 hPa 0,0 l/m 0 min 0 min 0 W/m 16,1 km/h (3 Bft) 97,87 %
05.01.2022 06:30 1,4 C 0,6 C -0,6 C 93 % 1003,6 hPa 0,0 l/m 0 min 0 min 0 W/m 9,7 km/h (2 Bft) 97,87 %
05.01.2022 06:32 1,4 C 0,6 C -0,6 C 93 % 1003,6 hPa 0,0 l/m 0 min 0 min 0 W/m 16,1 km/h (3 Bft) 97,87 %
05.01.2022 06:34 1,4 C 0,6 C -0,6 C 93 % 1003,5 hPa 0,0 l/m 0 min 0 min 0 W/m 16,1 km/h (3 Bft) 97,83 %
05.01.2022 06:36 1,4 C 0,6 C -0,6 C 93 % 1003,5 hPa 0,0 l/m 0 min 0 min 0 W/m 12,9 km/h (3 Bft) 97,87 %
05.01.2022 06:38 1,4 C 0,6 C -0,6 C 93 % 1003,5 hPa 0,0 l/m 0 min 0 min 0 W/m 12,9 km/h (3 Bft) 97,87 %
05.01.2022 06:40 1,4 C 0,6 C -0,6 C 93 % 1003,6 hPa 0,0 l/m 0 min 0 min 0 W/m 12,9 km/h (3 Bft) 97,87 %
05.01.2022 06:42 1,4 C 1,1 C -0,6 C 93 % 1003,6 hPa 0,0 l/m 0 min 0 min 0 W/m 16,1 km/h (3 Bft) 97,87 %
05.01.2022 06:44 1,4 C 1,1 C -0,6 C 93 % 1003,6 hPa 0,0 l/m 0 min 0 min 0 W/m 19,3 km/h (3 Bft) 97,87 %
05.01.2022 06:46 1,4 C 1,1 C -0,6 C 93 % 1003,6 hPa 0,0 l/m 0 min 0 min 0 W/m 16,1 km/h (3 Bft) 95,65 %
05.01.2022 06:48 1,4 C 1,1 C -0,6 C 93 % 1003,6 hPa 0,0 l/m 0 min 0 min 0 W/m 19,3 km/h (3 Bft) 97,87 %
05.01.2022 06:50 1,4 C 1,1 C -0,6 C 93 % 1003,6 hPa 0,0 l/m 0 min 0 min 0 W/m 16,1 km/h (3 Bft) 97,87 %
05.01.2022 06:52 1,4 C 0,6 C -0,6 C 93 % 1003,7 hPa 0,0 l/m 0 min 0 min 0 W/m 12,9 km/h (3 Bft) 95,74 %
05.01.2022 06:54 1,4 C 1,1 C -0,6 C 93 % 1003,7 hPa 0,0 l/m 0 min 0 min 0 W/m 19,3 km/h (3 Bft) 97,87 %
05.01.2022 06:56 1,4 C 0,6 C -0,6 C 93 % 1003,6 hPa 0,0 l/m 0 min 0 min 0 W/m 9,7 km/h (2 Bft) 97,87 %
05.01.2022 06:58 1,4 C 0,6 C -0,6 C 93 % 1003,6 hPa 0,0 l/m 0 min 0 min 0 W/m 12,9 km/h (3 Bft) 97,83 %
05.01.2022 07:00 1,4 C 1,1 C -0,6 C 93 % 1003,6 hPa 0,0 l/m 0 min 0 min 0 W/m 12,9 km/h (3 Bft) 97,87 %
05.01.2022 07:02 1,4 C 1,1 C -0,6 C 93 % 1003,7 hPa 0,0 l/m 0 min 0 min 0 W/m 12,9 km/h (3 Bft) 97,92 %
05.01.2022 07:04 1,4 C 1,1 C -0,6 C 93 % 1003,7 hPa 0,0 l/m 0 min 0 min 0 W/m 16,1 km/h (3 Bft) 95,74 %
05.01.2022 07:06 1,4 C 1,1 C -0,6 C 93 % 1003,8 hPa 0,0 l/m 0 min 0 min 0 W/m 12,9 km/h (3 Bft) 97,87 %
05.01.2022 07:08 1,4 C 1,1 C -0,6 C 93 % 1003,8 hPa 0,0 l/m 0 min 0 min 0 W/m 16,1 km/h (3 Bft) 47,37 %
05.01.2022 07:10 1,5 C 1,1 C -0,6 C 93 % 1003,9 hPa 0,0 l/m 0 min 0 min 0 W/m 16,1 km/h (3 Bft) 97,83 %
05.01.2022 07:12 1,4 C 1,1 C -0,6 C 93 % 1003,8 hPa 0,0 l/m 0 min 0 min 0 W/m 12,9 km/h (3 Bft) 97,87 %
05.01.2022 07:14 1,5 C 1,1 C -0,6 C 93 % 1003,8 hPa 0,0 l/m 0 min 0 min 0 W/m 19,3 km/h (3 Bft) 95,74 %
05.01.2022 07:16 1,5 C 1,1 C -0,6 C 93 % 1003,8 hPa 0,0 l/m 0 min 0 min 0 W/m 19,3 km/h (3 Bft) 93,62 %
05.01.2022 07:18 1,5 C 1,1 C -0,6 C 93 % 1003,9 hPa 0,0 l/m 0 min 0 min 0 W/m 16,1 km/h (3 Bft) 93,62 %
05.01.2022 07:20 1,5 C 1,1 C -0,6 C 93 % 1003,9 hPa 0,0 l/m 0 min 0 min 0 W/m 22,5 km/h (4 Bft) 91,49 %
05.01.2022 07:22 1,5 C 1,1 C -0,6 C 93 % 1003,8 hPa 0,0 l/m 0 min 0 min 0 W/m 19,3 km/h (3 Bft) 93,48 %
05.01.2022 07:24 1,6 C 1,1 C -0,6 C 93 % 1003,9 hPa 0,0 l/m 0 min 0 min 0 W/m 12,9 km/h (3 Bft) 93,62 %
05.01.2022 07:26 1,6 C 1,1 C -0,6 C 93 % 1003,9 hPa 0,0 l/m 0 min 0 min 0 W/m 12,9 km/h (3 Bft) 89,36 %
05.01.2022 07:28 1,6 C 1,1 C -0,6 C 93 % 1003,9 hPa 0,0 l/m 0 min 0 min 0 W/m 16,1 km/h (3 Bft) 93,62 %
05.01.2022 07:30 1,6 C 1,1 C -0,6 C 93 % 1004,0 hPa 0,0 l/m 0 min 0 min 0 W/m 12,9 km/h (3 Bft) 89,36 %
05.01.2022 07:32 1,6 C 1,1 C -0,6 C 93 % 1004,0 hPa 0,0 l/m 0 min 0 min 0 W/m 9,7 km/h (2 Bft) 93,48 %
05.01.2022 07:34 1,6 C 1,1 C -0,6 C 93 % 1004,0 hPa 0,0 l/m 0 min 0 min 0 W/m 12,9 km/h (3 Bft) 95,74 %
05.01.2022 07:36 1,6 C 1,1 C -0,6 C 93 % 1004,0 hPa 0,0 l/m 0 min 0 min 0 W/m 12,9 km/h (3 Bft) 95,74 %
05.01.2022 07:38 1,6 C 1,1 C -0,6 C 93 % 1004,0 hPa 0,0 l/m 0 min 0 min 0 W/m 19,3 km/h (3 Bft) 95,74 %
05.01.2022 07:40 1,6 C 1,1 C -0,6 C 93 % 1004,0 hPa 0,0 l/m 0 min 0 min 0 W/m 16,1 km/h (3 Bft) 93,62 %
05.01.2022 07:42 1,7 C 1,1 C -0,6 C 93 % 1004,1 hPa 0,0 l/m 0 min 0 min 0 W/m 16,1 km/h (3 Bft) 93,62 %
05.01.2022 07:44 1,7 C 1,1 C -0,6 C 93 % 1004,0 hPa 0,0 l/m 0 min 0 min 0 W/m 22,5 km/h (4 Bft) 95,74 %
05.01.2022 07:46 1,7 C 1,1 C -0,6 C 93 % 1004,1 hPa 0,0 l/m 0 min 0 min 0 W/m 22,5 km/h (4 Bft) 95,65 %
05.01.2022 07:48 1,7 C 1,1 C -0,6 C 93 % 1004,2 hPa 0,0 l/m 0 min 0 min 0 W/m 22,5 km/h (4 Bft) 97,87 %
05.01.2022 07:50 1,7 C 1,1 C -0,6 C 93 % 1004,2 hPa 0,0 l/m 0 min 0 min 0 W/m 16,1 km/h (3 Bft) 93,62 %
05.01.2022 07:52 1,8 C 1,1 C -0,6 C 93 % 1004,2 hPa 0,0 l/m 0 min 0 min 0 W/m 29,0 km/h (5 Bft) 100,00 %
05.01.2022 07:54 1,8 C 1,1 C -0,6 C 93 % 1004,2 hPa 0,0 l/m 0 min 0 min 0 W/m 19,3 km/h (3 Bft) 100,00 %
05.01.2022 07:56 1,8 C 1,1 C -0,6 C 93 % 1004,2 hPa 0,0 l/m 0 min 0 min 0 W/m 22,5 km/h (4 Bft) 100,00 %
05.01.2022 07:58 1,8 C 1,1 C 0,0 C 93 % 1004,1 hPa 0,0 l/m 0 min 0 min 0 W/m 19,3 km/h (3 Bft) 100,00 %
05.01.2022 08:00 1,8 C 1,1 C -0,6 C 93 % 1004,1 hPa 0,0 l/m 0 min 0 min 0 W/m 29,0 km/h (5 Bft) 100,00 %
05.01.2022 08:02 1,8 C 1,1 C -0,6 C 92 % 1004,2 hPa 0,0 l/m 0 min 0 min 0 W/m 22,5 km/h (4 Bft) 100,00 %
05.01.2022 08:04 1,8 C 1,1 C -0,6 C 92 % 1004,2 hPa 0,0 l/m 0 min 0 min 0 W/m 16,1 km/h (3 Bft) 100,00 %
05.01.2022 08:06 1,8 C 1,1 C -0,6 C 92 % 1004,2 hPa 0,0 l/m 0 min 0 min 0 W/m 16,1 km/h (3 Bft) 100,00 %
05.01.2022 08:08 1,8 C 1,1 C -0,6 C 92 % 1004,2 hPa 0,0 l/m 0 min 0 min 0 W/m 19,3 km/h (3 Bft) 97,83 %
05.01.2022 08:10 1,8 C 1,1 C -0,6 C 92 % 1004,2 hPa 0,0 l/m 0 min 0 min 0 W/m 12,9 km/h (3 Bft) 100,00 %
05.01.2022 08:12 1,8 C 1,1 C -0,6 C 92 % 1004,3 hPa 0,0 l/m 0 min 0 min 0 W/m 19,3 km/h (3 Bft) 97,87 %
05.01.2022 08:14 1,8 C 1,1 C -0,6 C 92 % 1004,3 hPa 0,0 l/m 0 min 0 min 0 W/m 19,3 km/h (3 Bft) 100,00 %
05.01.2022 08:16 1,8 C 1,1 C -0,6 C 92 % 1004,3 hPa 0,0 l/m 0 min 0 min 0 W/m 22,5 km/h (4 Bft) 97,87 %
05.01.2022 08:18 1,8 C 1,1 C -0,6 C 92 % 1004,3 hPa 0,0 l/m 0 min 0 min 0 W/m 22,5 km/h (4 Bft) 100,00 %
05.01.2022 08:20 1,9 C 1,1 C -0,6 C 92 % 1004,4 hPa 0,0 l/m 0 min 0 min 0 W/m 19,3 km/h (3 Bft) 100,00 %
05.01.2022 08:22 1,8 C 1,1 C 0,0 C 92 % 1004,4 hPa 0,0 l/m 0 min 0 min 0 W/m 19,3 km/h (3 Bft) 100,00 %
05.01.2022 08:24 1,9 C 1,1 C 0,0 C 92 % 1004,4 hPa 0,0 l/m 0 min 0 min 0 W/m 16,1 km/h (3 Bft) 100,00 %
05.01.2022 08:26 1,9 C 1,1 C 0,0 C 92 % 1004,5 hPa 0,0 l/m 0 min 0 min 0 W/m 22,5 km/h (4 Bft) 97,87 %
05.01.2022 08:28 1,9 C 1,1 C 0,0 C 92 % 1004,4 hPa 0,0 l/m 0 min 0 min 0 W/m 16,1 km/h (3 Bft) 100,00 %
05.01.2022 08:30 1,9 C 1,7 C 0,0 C 92 % 1004,5 hPa 0,0 l/m 0 min 0 min 0 W/m 22,5 km/h (4 Bft) 97,87 %
05.01.2022 08:32 1,9 C 1,7 C 0,0 C 92 % 1004,5 hPa 0,0 l/m 0 min 0 min 0 W/m 16,1 km/h (3 Bft) 100,00 %
05.01.2022 08:34 1,9 C 1,7 C 0,0 C 92 % 1004,5 hPa 0,0 l/m 0 min 0 min 0 W/m 19,3 km/h (3 Bft) 100,00 %
05.01.2022 08:36 1,9 C 1,7 C 0,0 C 92 % 1004,6 hPa 0,0 l/m 0 min 0 min 0 W/m 22,5 km/h (4 Bft) 100,00 %
05.01.2022 08:38 1,9 C 1,7 C 0,0 C 92 % 1004,5 hPa 0,0 l/m 0 min 0 min 0 W/m 41,8 km/h (6 Bft) 100,00 %
05.01.2022 08:40 2,0 C 1,7 C 0,0 C 93 % 1004,4 hPa 0,0 l/m 0 min 0 min 0 W/m 16,1 km/h (3 Bft) 100,00 %
05.01.2022 08:42 2,0 C 1,7 C 0,0 C 92 % 1004,4 hPa 0,0 l/m 0 min 0 min 0 W/m 29,0 km/h (5 Bft) 100,00 %
05.01.2022 08:44 1,9 C 1,7 C 0,0 C 92 % 1004,4 hPa 0,0 l/m 0 min 0 min 4 W/m 22,5 km/h (4 Bft) 100,00 %
05.01.2022 08:46 1,9 C 1,7 C 0,0 C 92 % 1004,4 hPa 0,0 l/m 0 min 0 min 5 W/m 22,5 km/h (4 Bft) 100,00 %
05.01.2022 08:48 1,9 C 1,1 C 0,0 C 92 % 1004,4 hPa 0,0 l/m 0 min 0 min 5 W/m 16,1 km/h (3 Bft) 100,00 %
05.01.2022 08:50 1,9 C 1,1 C 0,0 C 92 % 1004,5 hPa 0,0 l/m 0 min 0 min 7 W/m 16,1 km/h (3 Bft) 100,00 %
05.01.2022 08:52 1,9 C 1,1 C 0,0 C 92 % 1004,6 hPa 0,0 l/m 0 min 0 min 10 W/m 12,9 km/h (3 Bft) 97,87 %
05.01.2022 08:54 1,9 C 1,1 C 0,0 C 92 % 1004,6 hPa 0,0 l/m 0 min 0 min 13 W/m 22,5 km/h (4 Bft) 100,00 %
05.01.2022 08:56 1,9 C 1,7 C 0,0 C 92 % 1004,7 hPa 0,0 l/m 0 min 0 min 12 W/m 25,7 km/h (4 Bft) 97,83 %
05.01.2022 08:58 1,9 C 1,7 C 0,0 C 92 % 1004,8 hPa 0,0 l/m 0 min 0 min 11 W/m 22,5 km/h (4 Bft) 100,00 %
05.01.2022 09:00 2,0 C 1,7 C 0,0 C 92 % 1004,8 hPa 0,0 l/m 0 min 0 min 8 W/m 29,0 km/h (5 Bft) 100,00 %
05.01.2022 09:02 2,0 C 1,7 C 0,0 C 92 % 1004,8 hPa 0,0 l/m 0 min 0 min 8 W/m 25,7 km/h (4 Bft) 97,87 %
05.01.2022 09:04 2,1 C 1,7 C 0,0 C 92 % 1004,9 hPa 0,0 l/m 0 min 0 min 6 W/m 25,7 km/h (4 Bft) 97,87 %
05.01.2022 09:06 2,1 C 1,7 C 0,0 C 92 % 1004,8 hPa 0,0 l/m 0 min 0 min 5 W/m 19,3 km/h (3 Bft) 95,74 %
05.01.2022 09:08 2,1 C 1,7 C 0,0 C 92 % 1004,8 hPa 0,0 l/m 0 min 0 min 5 W/m 12,9 km/h (3 Bft) 97,83 %
05.01.2022 09:10 2,1 C 1,7 C 0,0 C 92 % 1004,8 hPa 0,0 l/m 0 min 0 min 6 W/m 19,3 km/h (3 Bft) 97,87 %
05.01.2022 09:12 2,1 C 1,7 C 0,0 C 92 % 1004,9 hPa 0,0 l/m 0 min 0 min 8 W/m 22,5 km/h (4 Bft) 97,87 %
05.01.2022 09:14 2,1 C 1,7 C 0,0 C 92 % 1004,9 hPa 0,0 l/m 0 min 0 min 10 W/m 29,0 km/h (5 Bft) 95,74 %
05.01.2022 09:16 2,1 C 1,7 C 0,0 C 92 % 1004,9 hPa 0,0 l/m 0 min 0 min 13 W/m 19,3 km/h (3 Bft) 95,74 %
05.01.2022 09:18 2,1 C 1,7 C 0,0 C 92 % 1005,0 hPa 0,0 l/m 0 min 0 min 17 W/m 16,1 km/h (3 Bft) 97,87 %
05.01.2022 09:20 2,2 C 1,7 C 0,0 C 93 % 1005,0 hPa 0,0 l/m 0 min 0 min 24 W/m 19,3 km/h (3 Bft) 97,83 %
05.01.2022 09:22 2,2 C 1,7 C 0,6 C 93 % 1004,9 hPa 0,0 l/m 0 min 0 min 28 W/m 16,1 km/h (3 Bft) 97,87 %
05.01.2022 09:24 2,2 C 1,7 C 0,6 C 92 % 1005,0 hPa 0,0 l/m 0 min 0 min 26 W/m 19,3 km/h (3 Bft) 97,87 %
05.01.2022 09:26 2,2 C 1,7 C 0,6 C 92 % 1005,0 hPa 0,0 l/m 0 min 0 min 27 W/m 29,0 km/h (5 Bft) 97,87 %
05.01.2022 09:28 2,2 C 2,2 C 0,6 C 92 % 1005,0 hPa 0,0 l/m 0 min 0 min 25 W/m 16,1 km/h (3 Bft) 97,87 %
05.01.2022 09:30 2,3 C 2,2 C 0,6 C 92 % 1005,1 hPa 0,0 l/m 0 min 0 min 26 W/m 25,7 km/h (4 Bft) 95,65 %
05.01.2022 09:32 2,3 C 2,2 C 0,6 C 92 % 1005,1 hPa 0,0 l/m 0 min 0 min 20 W/m 16,1 km/h (3 Bft) 95,74 %
05.01.2022 09:34 2,3 C 2,2 C 0,6 C 92 % 1005,1 hPa 0,0 l/m 0 min 0 min 20 W/m 25,7 km/h (4 Bft) 97,87 %
05.01.2022 09:36 2,3 C 2,2 C 0,6 C 92 % 1005,1 hPa 0,0 l/m 0 min 0 min 18 W/m 16,1 km/h (3 Bft) 97,87 %
05.01.2022 09:38 2,4 C 2,2 C 0,6 C 92 % 1005,1 hPa 0,0 l/m 0 min 0 min 14 W/m 12,9 km/h (3 Bft) 95,74 %
05.01.2022 09:40 2,4 C 2,2 C 0,6 C 92 % 1005,2 hPa 0,0 l/m 0 min 0 min 12 W/m 16,1 km/h (3 Bft) 95,74 %
05.01.2022 09:42 2,4 C 2,2 C 0,6 C 92 % 1005,1 hPa 0,0 l/m 0 min 0 min 7 W/m 19,3 km/h (3 Bft) 97,83 %
05.01.2022 09:44 2,4 C 2,2 C 0,6 C 92 % 1005,1 hPa 0,0 l/m 0 min 0 min 5 W/m 19,3 km/h (3 Bft) 97,87 %
05.01.2022 09:46 2,4 C 2,2 C 0,6 C 92 % 1005,1 hPa 0,0 l/m 0 min 0 min 8 W/m 22,5 km/h (4 Bft) 97,87 %
05.01.2022 09:48 2,4 C 2,2 C 0,6 C 92 % 1005,2 hPa 0,0 l/m 0 min 0 min 9 W/m 16,1 km/h (3 Bft) 97,87 %
05.01.2022 09:50 2,4 C 2,2 C 0,6 C 92 % 1005,2 hPa 0,0 l/m 0 min 0 min 9 W/m 29,0 km/h (5 Bft) 97,87 %
05.01.2022 09:52 2,4 C 2,2 C 0,6 C 92 % 1005,1 hPa 0,0 l/m 0 min 0 min 16 W/m 19,3 km/h (3 Bft) 95,74 %
05.01.2022 09:54 2,5 C 2,2 C 0,6 C 92 % 1005,1 hPa 0,0 l/m 0 min 0 min 28 W/m 19,3 km/h (3 Bft) 97,83 %
05.01.2022 09:56 2,5 C 2,2 C 0,6 C 92 % 1005,1 hPa 0,0 l/m 0 min 0 min 49 W/m 16,1 km/h (3 Bft) 93,62 %
05.01.2022 09:58 2,5 C 2,2 C 0,6 C 92 % 1005,1 hPa 0,0 l/m 0 min 0 min 54 W/m 22,5 km/h (4 Bft) 93,62 %
05.01.2022 10:00 2,6 C 2,2 C 0,6 C 92 % 1005,1 hPa 0,0 l/m 0 min 0 min 56 W/m 19,3 km/h (3 Bft) 93,62 %
05.01.2022 10:02 2,6 C 2,2 C 0,6 C 92 % 1005,1 hPa 0,0 l/m 0 min 0 min 67 W/m 32,2 km/h (5 Bft) 91,49 %
05.01.2022 10:04 2,6 C 2,2 C 0,6 C 92 % 1005,1 hPa 0,0 l/m 0 min 0 min 75 W/m 19,3 km/h (3 Bft) 95,74 %
05.01.2022 10:06 2,7 C 2,8 C 0,6 C 92 % 1005,1 hPa 0,0 l/m 0 min 0 min 77 W/m 22,5 km/h (4 Bft) 95,65 %
05.01.2022 10:08 2,7 C 2,8 C 1,1 C 92 % 1005,1 hPa 0,0 l/m 0 min 0 min 86 W/m 22,5 km/h (4 Bft) 95,74 %
05.01.2022 10:10 2,7 C 2,8 C 1,1 C 92 % 1005,0 hPa 0,0 l/m 0 min 0 min 86 W/m 32,2 km/h (5 Bft) 95,74 %
05.01.2022 10:12 2,7 C 2,8 C 1,1 C 92 % 1005,0 hPa 0,0 l/m 0 min 0 min 77 W/m 25,7 km/h (4 Bft) 95,74 %
05.01.2022 10:14 2,8 C 2,8 C 1,1 C 92 % 1005,0 hPa 0,0 l/m 0 min 0 min 86 W/m 22,5 km/h (4 Bft) 93,62 %
05.01.2022 10:16 2,8 C 2,8 C 1,1 C 92 % 1005,1 hPa 0,0 l/m 0 min 0 min 52 W/m 29,0 km/h (5 Bft) 97,87 %
05.01.2022 10:18 2,8 C 2,8 C 1,1 C 92 % 1005,1 hPa 0,0 l/m 0 min 0 min 26 W/m 25,7 km/h (4 Bft) 97,83 %
05.01.2022 10:20 2,8 C 2,8 C 1,1 C 92 % 1005,2 hPa 0,0 l/m 0 min 0 min 27 W/m 22,5 km/h (4 Bft) 97,87 %
05.01.2022 10:22 2,9 C 2,8 C 1,1 C 92 % 1005,3 hPa 0,0 l/m 0 min 0 min 42 W/m 16,1 km/h (3 Bft) 97,87 %
05.01.2022 10:24 2,9 C 2,8 C 1,1 C 92 % 1005,3 hPa 0,0 l/m 0 min 0 min 50 W/m 22,5 km/h (4 Bft) 97,87 %
05.01.2022 10:26 2,9 C 2,8 C 1,1 C 92 % 1005,3 hPa 0,0 l/m 0 min 0 min 58 W/m 22,5 km/h (4 Bft) 97,87 %
05.01.2022 10:28 2,9 C 2,8 C 1,1 C 92 % 1005,4 hPa 0,0 l/m 0 min 0 min 63 W/m 16,1 km/h (3 Bft) 95,74 %
05.01.2022 10:30 2,9 C 2,8 C 1,1 C 92 % 1005,4 hPa 0,0 l/m 0 min 0 min 48 W/m 22,5 km/h (4 Bft) 97,83 %
05.01.2022 10:32 2,9 C 2,8 C 1,1 C 92 % 1005,4 hPa 0,0 l/m 0 min 0 min 42 W/m 48,3 km/h (6 Bft) 93,62 %
05.01.2022 10:34 2,9 C 2,8 C 1,1 C 91 % 1005,3 hPa 0,0 l/m 0 min 0 min 39 W/m 25,7 km/h (4 Bft) 95,74 %
05.01.2022 10:36 2,9 C 2,8 C 1,1 C 91 % 1005,4 hPa 0,0 l/m 0 min 0 min 37 W/m 22,5 km/h (4 Bft) 95,74 %
05.01.2022 10:38 2,9 C 2,8 C 1,1 C 91 % 1005,4 hPa 0,0 l/m 0 min 0 min 32 W/m 32,2 km/h (5 Bft) 97,87 %
05.01.2022 10:40 2,9 C 2,8 C 1,1 C 91 % 1005,4 hPa 0,0 l/m 0 min 0 min 28 W/m 22,5 km/h (4 Bft) 95,74 %
05.01.2022 10:42 2,9 C 2,8 C 1,1 C 91 % 1005,4 hPa 0,0 l/m 0 min 0 min 35 W/m 25,7 km/h (4 Bft) 97,83 %
05.01.2022 10:44 3,0 C 2,8 C 1,1 C 91 % 1005,4 hPa 0,0 l/m 0 min 0 min 46 W/m 16,1 km/h (3 Bft) 93,62 %
05.01.2022 10:46 3,0 C 2,8 C 1,1 C 91 % 1005,5 hPa 0,0 l/m 0 min 0 min 67 W/m 16,1 km/h (3 Bft) 95,74 %
05.01.2022 10:48 3,1 C 2,8 C 1,1 C 91 % 1005,5 hPa 0,0 l/m 0 min 0 min 95 W/m 41,8 km/h (6 Bft) 97,87 %
05.01.2022 10:50 3,1 C 3,3 C 1,1 C 91 % 1005,5 hPa 0,0 l/m 0 min 0 min 115 W/m 25,7 km/h (4 Bft) 100,00 %
05.01.2022 10:52 3,1 C 3,3 C 1,1 C 91 % 1005,5 hPa 0,0 l/m 0 min 0 min 118 W/m 29,0 km/h (5 Bft) 100,00 %
05.01.2022 10:54 3,2 C 3,3 C 1,1 C 92 % 1005,5 hPa 0,0 l/m 0 min 0 min 106 W/m 32,2 km/h (5 Bft) 97,83 %
05.01.2022 10:56 3,2 C 3,3 C 1,1 C 92 % 1005,4 hPa 0,0 l/m 0 min 0 min 99 W/m 19,3 km/h (3 Bft) 97,87 %
05.01.2022 10:58 3,2 C 3,3 C 1,7 C 92 % 1005,5 hPa 0,0 l/m 0 min 0 min 90 W/m 16,1 km/h (3 Bft) 95,74 %
05.01.2022 11:00 3,3 C 3,3 C 1,7 C 91 % 1005,3 hPa 0,0 l/m 0 min 0 min 94 W/m 35,4 km/h (5 Bft) 95,74 %
05.01.2022 11:02 3,3 C 3,3 C 1,7 C 91 % 1005,5 hPa 0,0 l/m 0 min 0 min 91 W/m 45,1 km/h (6 Bft) 97,87 %
05.01.2022 11:04 3,3 C 3,3 C 1,7 C 91 % 1005,5 hPa 0,0 l/m 0 min 0 min 90 W/m 22,5 km/h (4 Bft) 97,87 %
05.01.2022 11:06 3,3 C 3,3 C 1,7 C 91 % 1005,5 hPa 0,0 l/m 0 min 0 min 102 W/m 19,3 km/h (3 Bft) 97,83 %
05.01.2022 11:08 3,3 C 3,3 C 1,7 C 91 % 1005,6 hPa 0,0 l/m 0 min 0 min 108 W/m 32,2 km/h (5 Bft) 97,87 %
05.01.2022 11:10 3,3 C 3,3 C 1,7 C 91 % 1005,6 hPa 0,0 l/m 0 min 0 min 100 W/m 29,0 km/h (5 Bft) 97,87 %
05.01.2022 11:12 3,3 C 3,3 C 1,7 C 91 % 1005,6 hPa 0,0 l/m 0 min 0 min 93 W/m 16,1 km/h (3 Bft) 95,74 %
05.01.2022 11:14 3,4 C 3,3 C 1,7 C 91 % 1005,5 hPa 0,0 l/m 0 min 0 min 81 W/m 22,5 km/h (4 Bft) 97,87 %
05.01.2022 11:16 3,4 C 3,3 C 1,7 C 91 % 1005,5 hPa 0,0 l/m 0 min 2 min 79 W/m 22,5 km/h (4 Bft) 97,87 %
05.01.2022 11:18 3,4 C 3,3 C 1,7 C 91 % 1005,6 hPa 0,0 l/m 0 min 2 min 82 W/m 29,0 km/h (5 Bft) 95,65 %
05.01.2022 11:20 3,4 C 3,3 C 1,7 C 91 % 1005,5 hPa 0,0 l/m 0 min 0 min 73 W/m 35,4 km/h (5 Bft) 97,87 %
05.01.2022 11:22 3,4 C 3,3 C 1,7 C 91 % 1005,6 hPa 0,0 l/m 0 min 0 min 56 W/m 16,1 km/h (3 Bft) 97,87 %
05.01.2022 11:24 3,4 C 3,3 C 1,7 C 91 % 1005,7 hPa 0,0 l/m 0 min 0 min 75 W/m 19,3 km/h (3 Bft) 97,87 %
05.01.2022 11:26 3,4 C 3,3 C 1,7 C 91 % 1005,7 hPa 0,0 l/m 0 min 2 min 94 W/m 22,5 km/h (4 Bft) 95,74 %
05.01.2022 11:28 3,4 C 3,3 C 1,7 C 91 % 1005,6 hPa 0,0 l/m 0 min 2 min 105 W/m 19,3 km/h (3 Bft) 97,87 %
05.01.2022 11:30 3,4 C 3,3 C 1,7 C 91 % 1005,5 hPa 0,0 l/m 0 min 2 min 93 W/m 25,7 km/h (4 Bft) 97,83 %
05.01.2022 11:32 3,4 C 3,3 C 1,7 C 91 % 1005,7 hPa 0,0 l/m 0 min 0 min 85 W/m 32,2 km/h (5 Bft) 100,00 %
05.01.2022 11:34 3,5 C 3,3 C 1,7 C 91 % 1005,7 hPa 0,0 l/m 0 min 0 min 104 W/m 16,1 km/h (3 Bft) 100,00 %
05.01.2022 11:36 3,5 C 3,3 C 1,7 C 92 % 1005,6 hPa 0,0 l/m 0 min 0 min 127 W/m 22,5 km/h (4 Bft) 100,00 %
05.01.2022 11:38 3,5 C 3,3 C 1,7 C 92 % 1005,6 hPa 0,0 l/m 0 min 0 min 107 W/m 32,2 km/h (5 Bft) 100,00 %
05.01.2022 11:40 3,6 C 3,3 C 1,7 C 92 % 1005,6 hPa 0,0 l/m 0 min 0 min 77 W/m 25,7 km/h (4 Bft) 100,00 %
05.01.2022 11:42 3,6 C 3,3 C 1,7 C 92 % 1005,7 hPa 0,0 l/m 0 min 0 min 75 W/m 19,3 km/h (3 Bft) 100,00 %
05.01.2022 11:44 3,6 C 3,3 C 1,7 C 91 % 1005,6 hPa 0,0 l/m 0 min 0 min 74 W/m 45,1 km/h (6 Bft) 100,00 %
05.01.2022 11:46 3,6 C 3,3 C 1,7 C 91 % 1005,8 hPa 0,0 l/m 0 min 0 min 61 W/m 38,6 km/h (5 Bft) 100,00 %
05.01.2022 11:48 3,6 C 3,3 C 1,1 C 91 % 1005,6 hPa 0,0 l/m 0 min 2 min 58 W/m 29,0 km/h (5 Bft) 100,00 %
05.01.2022 11:50 3,7 C 3,3 C 1,1 C 91 % 1005,7 hPa 0,0 l/m 0 min 2 min 68 W/m 22,5 km/h (4 Bft) 97,87 %
05.01.2022 11:52 3,7 C 3,3 C 1,1 C 92 % 1005,7 hPa 0,2 l/m 0 min 2 min 73 W/m 22,5 km/h (4 Bft) 100,00 %
05.01.2022 11:54 3,7 C 3,3 C 1,1 C 92 % 1005,7 hPa 0,0 l/m 0 min 2 min 72 W/m 32,2 km/h (5 Bft) 97,83 %
05.01.2022 11:56 3,7 C 3,3 C 1,1 C 92 % 1005,7 hPa 0,0 l/m 0 min 2 min 66 W/m 35,4 km/h (5 Bft) 100,00 %
05.01.2022 11:58 3,7 C 3,3 C 1,1 C 92 % 1005,7 hPa 0,0 l/m 0 min 2 min 67 W/m 19,3 km/h (3 Bft) 100,00 %
05.01.2022 12:00 3,7 C 3,3 C 1,1 C 92 % 1005,7 hPa 0,0 l/m 0 min 2 min 64 W/m 35,4 km/h (5 Bft) 97,87 %
05.01.2022 12:02 3,7 C 3,3 C 1,1 C 92 % 1005,6 hPa 0,0 l/m 0 min 2 min 65 W/m 25,7 km/h (4 Bft) 95,74 %
05.01.2022 12:04 3,7 C 3,3 C 1,1 C 92 % 1005,7 hPa 0,0 l/m 0 min 2 min 55 W/m 19,3 km/h (3 Bft) 100,00 %
05.01.2022 12:06 3,7 C 3,3 C 1,1 C 92 % 1005,7 hPa 0,0 l/m 0 min 2 min 53 W/m 19,3 km/h (3 Bft) 100,00 %
05.01.2022 12:08 3,7 C 3,3 C 1,1 C 92 % 1005,6 hPa 0,0 l/m 0 min 2 min 49 W/m 25,7 km/h (4 Bft) 100,00 %
05.01.2022 12:10 3,7 C 3,3 C 1,1 C 93 % 1005,7 hPa 0,0 l/m 0 min 2 min 49 W/m 25,7 km/h (4 Bft) 100,00 %
05.01.2022 12:12 3,7 C 3,3 C 1,1 C 93 % 1005,7 hPa 0,0 l/m 0 min 2 min 43 W/m 29,0 km/h (5 Bft) 97,87 %
05.01.2022 12:14 3,7 C 3,3 C 1,1 C 93 % 1005,8 hPa 0,0 l/m 0 min 2 min 44 W/m 16,1 km/h (3 Bft) 97,87 %
05.01.2022 12:16 3,7 C 3,3 C 1,1 C 93 % 1005,8 hPa 0,0 l/m 0 min 2 min 48 W/m 22,5 km/h (4 Bft) 95,65 %
05.01.2022 12:18 3,7 C 3,3 C 1,1 C 93 % 1005,7 hPa 0,0 l/m 0 min 2 min 53 W/m 22,5 km/h (4 Bft) 97,87 %
05.01.2022 12:20 3,7 C 3,3 C 1,1 C 93 % 1005,7 hPa 0,0 l/m 0 min 2 min 58 W/m 29,0 km/h (5 Bft) 97,87 %
05.01.2022 12:22 3,7 C 3,3 C 1,1 C 93 % 1005,8 hPa 0,0 l/m 0 min 2 min 65 W/m 32,2 km/h (5 Bft) 97,87 %
05.01.2022 12:24 3,7 C 3,3 C 1,1 C 93 % 1005,6 hPa 0,0 l/m 0 min 2 min 88 W/m 25,7 km/h (4 Bft) 100,00 %
05.01.2022 12:26 3,8 C 3,3 C 1,1 C 93 % 1005,7 hPa 0,0 l/m 0 min 2 min 148 W/m 29,0 km/h (5 Bft) 95,74 %
05.01.2022 12:28 3,8 C 3,9 C 1,1 C 93 % 1005,7 hPa 0,0 l/m 2 min 2 min 213 W/m 29,0 km/h (5 Bft) 97,83 %
05.01.2022 12:30 3,9 C 4,4 C 1,7 C 93 % 1005,5 hPa 0,0 l/m 2 min 2 min 242 W/m 35,4 km/h (5 Bft) 97,87 %
05.01.2022 12:32 4,1 C 5,0 C 1,7 C 93 % 1005,6 hPa 0,0 l/m 2 min 2 min 225 W/m 19,3 km/h (3 Bft) 97,87 %
05.01.2022 12:34 4,2 C 4,4 C 1,7 C 93 % 1005,6 hPa 0,0 l/m 2 min 2 min 206 W/m 38,6 km/h (5 Bft) 95,74 %
05.01.2022 12:36 4,2 C 4,4 C 1,7 C 93 % 1005,4 hPa 0,0 l/m 0 min 2 min 148 W/m 22,5 km/h (4 Bft) 97,87 %
05.01.2022 12:38 4,2 C 4,4 C 1,7 C 93 % 1005,6 hPa 0,0 l/m 0 min 2 min 96 W/m 29,0 km/h (5 Bft) 97,87 %
05.01.2022 12:40 4,2 C 4,4 C 1,7 C 93 % 1005,6 hPa 0,0 l/m 0 min 2 min 80 W/m 35,4 km/h (5 Bft) 97,83 %
05.01.2022 12:42 4,2 C 4,4 C 1,1 C 92 % 1005,4 hPa 0,0 l/m 0 min 2 min 75 W/m 22,5 km/h (4 Bft) 97,87 %
05.01.2022 12:44 4,3 C 4,4 C 1,1 C 92 % 1005,5 hPa 0,0 l/m 0 min 2 min 64 W/m 25,7 km/h (4 Bft) 97,87 %
05.01.2022 12:46 4,3 C 3,9 C 1,1 C 92 % 1005,5 hPa 0,0 l/m 0 min 2 min 44 W/m 29,0 km/h (5 Bft) 97,87 %
05.01.2022 12:48 4,3 C 3,9 C 1,1 C 92 % 1005,6 hPa 0,0 l/m 0 min 0 min 52 W/m 25,7 km/h (4 Bft) 95,74 %
05.01.2022 12:50 4,3 C 3,9 C 1,1 C 92 % 1005,7 hPa 0,0 l/m 0 min 0 min 86 W/m 22,5 km/h (4 Bft) 97,87 %
05.01.2022 12:52 4,3 C 3,9 C 1,7 C 92 % 1005,8 hPa 0,0 l/m 0 min 0 min 115 W/m 32,2 km/h (5 Bft) 95,65 %
05.01.2022 12:54 4,3 C 3,9 C 1,7 C 92 % 1005,7 hPa 0,0 l/m 0 min 0 min 109 W/m 22,5 km/h (4 Bft) 93,62 %
05.01.2022 12:56 4,3 C 3,9 C 1,7 C 92 % 1005,8 hPa 0,0 l/m 0 min 2 min 107 W/m 35,4 km/h (5 Bft) 91,49 %
05.01.2022 12:58 4,3 C 4,4 C 1,7 C 92 % 1005,7 hPa 0,0 l/m 0 min 0 min 100 W/m 25,7 km/h (4 Bft) 93,62 %
05.01.2022 13:00 4,3 C 4,4 C 1,7 C 92 % 1005,8 hPa 0,0 l/m 0 min 0 min 94 W/m 35,4 km/h (5 Bft) 97,87 %
05.01.2022 13:02 4,3 C 4,4 C 1,7 C 92 % 1005,8 hPa 0,0 l/m 0 min 2 min 94 W/m 22,5 km/h (4 Bft) 95,74 %
05.01.2022 13:04 4,4 C 4,4 C 1,7 C 92 % 1005,9 hPa 0,0 l/m 0 min 0 min 93 W/m 38,6 km/h (5 Bft) 95,65 %
05.01.2022 13:06 4,4 C 4,4 C 1,7 C 92 % 1006,0 hPa 0,0 l/m 0 min 2 min 98 W/m 19,3 km/h (3 Bft) 95,74 %
05.01.2022 13:08 4,4 C 4,4 C 1,7 C 92 % 1006,0 hPa 0,0 l/m 0 min 0 min 90 W/m 19,3 km/h (3 Bft) 93,62 %
05.01.2022 13:10 4,4 C 4,4 C 1,7 C 92 % 1006,0 hPa 0,0 l/m 0 min 0 min 57 W/m 29,0 km/h (5 Bft) 95,74 %
05.01.2022 13:12 4,4 C 4,4 C 1,7 C 92 % 1006,0 hPa 0,0 l/m 0 min 0 min 53 W/m 25,7 km/h (4 Bft) 95,74 %
05.01.2022 13:14 4,4 C 3,9 C 1,7 C 92 % 1006,2 hPa 0,0 l/m 0 min 0 min 51 W/m 25,7 km/h (4 Bft) 97,87 %
05.01.2022 13:16 4,5 C 3,9 C 1,7 C 91 % 1006,1 hPa 0,0 l/m 0 min 0 min 54 W/m 25,7 km/h (4 Bft) 95,65 %
05.01.2022 13:18 4,5 C 3,9 C 1,7 C 91 % 1006,2 hPa 0,0 l/m 0 min 0 min 58 W/m 22,5 km/h (4 Bft) 95,74 %
05.01.2022 13:20 4,5 C 4,4 C 1,7 C 91 % 1006,0 hPa 0,0 l/m 0 min 0 min 70 W/m 29,0 km/h (5 Bft) 95,74 %
05.01.2022 13:22 4,5 C 4,4 C 1,7 C 91 % 1006,1 hPa 0,0 l/m 0 min 0 min 66 W/m 29,0 km/h (5 Bft) 95,74 %
05.01.2022 13:24 4,5 C 4,4 C 1,7 C 91 % 1006,0 hPa 0,0 l/m 0 min 2 min 66 W/m 25,7 km/h (4 Bft) 93,62 %
05.01.2022 13:26 4,6 C 4,4 C 1,7 C 91 % 1006,2 hPa 0,0 l/m 0 min 2 min 76 W/m 16,1 km/h (3 Bft) 95,74 %
05.01.2022 13:28 4,6 C 4,4 C 1,7 C 91 % 1006,0 hPa 0,0 l/m 0 min 0 min 60 W/m 22,5 km/h (4 Bft) 97,83 %
05.01.2022 13:30 4,6 C 4,4 C 1,7 C 91 % 1006,0 hPa 0,0 l/m 0 min 2 min 70 W/m 25,7 km/h (4 Bft) 95,74 %
05.01.2022 13:32 4,6 C 4,4 C 1,7 C 91 % 1006,0 hPa 0,0 l/m 0 min 2 min 69 W/m 22,5 km/h (4 Bft) 95,74 %
05.01.2022 13:34 4,6 C 4,4 C 1,7 C 91 % 1006,2 hPa 0,0 l/m 0 min 2 min 60 W/m 25,7 km/h (4 Bft) 97,87 %
05.01.2022 13:36 4,6 C 4,4 C 1,7 C 91 % 1006,2 hPa 0,0 l/m 0 min 2 min 68 W/m 12,9 km/h (3 Bft) 95,74 %
05.01.2022 13:38 4,7 C 4,4 C 2,2 C 91 % 1006,2 hPa 0,0 l/m 0 min 0 min 98 W/m 16,1 km/h (3 Bft) 97,87 %
05.01.2022 13:40 4,7 C 4,4 C 2,2 C 91 % 1006,2 hPa 0,0 l/m 0 min 0 min 92 W/m 25,7 km/h (4 Bft) 97,83 %
05.01.2022 13:42 4,7 C 4,4 C 2,2 C 91 % 1006,2 hPa 0,0 l/m 0 min 0 min 51 W/m 32,2 km/h (5 Bft) 95,74 %
05.01.2022 13:44 4,7 C 4,4 C 2,2 C 91 % 1006,3 hPa 0,0 l/m 0 min 0 min 40 W/m 25,7 km/h (4 Bft) 100,00 %
05.01.2022 13:46 4,7 C 4,4 C 2,2 C 91 % 1006,3 hPa 0,0 l/m 0 min 0 min 53 W/m 25,7 km/h (4 Bft) 95,74 %
05.01.2022 13:48 4,7 C 4,4 C 2,2 C 91 % 1006,3 hPa 0,0 l/m 0 min 0 min 55 W/m 22,5 km/h (4 Bft) 95,74 %
05.01.2022 13:50 4,7 C 4,4 C 2,2 C 91 % 1006,3 hPa 0,0 l/m 0 min 2 min 53 W/m 22,5 km/h (4 Bft) 100,00 %
05.01.2022 13:52 4,7 C 4,4 C 2,2 C 91 % 1006,4 hPa 0,0 l/m 0 min 2 min 46 W/m 22,5 km/h (4 Bft) 100,00 %
05.01.2022 13:54 4,7 C 4,4 C 2,2 C 91 % 1006,3 hPa 0,0 l/m 0 min 2 min 56 W/m 22,5 km/h (4 Bft) 100,00 %
05.01.2022 13:56 4,7 C 4,4 C 2,2 C 91 % 1006,4 hPa 0,0 l/m 0 min 2 min 46 W/m 19,3 km/h (3 Bft) 100,00 %
05.01.2022 13:58 4,7 C 4,4 C 2,2 C 91 % 1006,4 hPa 0,0 l/m 0 min 2 min 54 W/m 29,0 km/h (5 Bft) 100,00 %
05.01.2022 14:00 4,7 C 4,4 C 2,2 C 91 % 1006,4 hPa 0,0 l/m 0 min 2 min 51 W/m 19,3 km/h (3 Bft) 100,00 %
05.01.2022 14:02 4,7 C 4,4 C 1,7 C 92 % 1006,5 hPa 0,0 l/m 0 min 2 min 47 W/m 22,5 km/h (4 Bft) 97,83 %
05.01.2022 14:04 4,7 C 4,4 C 1,7 C 92 % 1006,5 hPa 0,0 l/m 0 min 2 min 48 W/m 29,0 km/h (5 Bft) 100,00 %
05.01.2022 14:06 4,7 C 3,9 C 1,7 C 92 % 1006,4 hPa 0,2 l/m 0 min 2 min 48 W/m 19,3 km/h (3 Bft) 100,00 %
05.01.2022 14:08 4,6 C 4,4 C 1,7 C 92 % 1006,6 hPa 0,0 l/m 0 min 2 min 54 W/m 16,1 km/h (3 Bft) 100,00 %
05.01.2022 14:10 4,6 C 4,4 C 1,7 C 92 % 1006,5 hPa 0,0 l/m 0 min 2 min 49 W/m 29,0 km/h (5 Bft) 100,00 %
05.01.2022 14:12 4,7 C 4,4 C 1,7 C 92 % 1006,6 hPa 0,0 l/m 0 min 2 min 42 W/m 25,7 km/h (4 Bft) 100,00 %
05.01.2022 14:14 4,7 C 4,4 C 1,7 C 92 % 1006,6 hPa 0,0 l/m 0 min 2 min 36 W/m 16,1 km/h (3 Bft) 100,00 %
05.01.2022 14:16 4,7 C 4,4 C 1,7 C 92 % 1006,6 hPa 0,0 l/m 0 min 2 min 38 W/m 19,3 km/h (3 Bft) 100,00 %
05.01.2022 14:18 4,7 C 4,4 C 1,7 C 92 % 1006,6 hPa 0,0 l/m 0 min 2 min 33 W/m 22,5 km/h (4 Bft) 100,00 %
05.01.2022 14:20 4,7 C 4,4 C 1,7 C 92 % 1006,6 hPa 0,0 l/m 0 min 2 min 32 W/m 16,1 km/h (3 Bft) 100,00 %
05.01.2022 14:22 4,7 C 4,4 C 1,7 C 92 % 1006,6 hPa 0,0 l/m 0 min 2 min 43 W/m 29,0 km/h (5 Bft) 97,87 %
05.01.2022 14:24 4,7 C 4,4 C 1,7 C 92 % 1006,5 hPa 0,0 l/m 0 min 2 min 54 W/m 25,7 km/h (4 Bft) 100,00 %
05.01.2022 14:26 4,7 C 4,4 C 1,7 C 92 % 1006,6 hPa 0,0 l/m 0 min 2 min 48 W/m 25,7 km/h (4 Bft) 100,00 %
05.01.2022 14:28 4,7 C 4,4 C 1,7 C 92 % 1006,6 hPa 0,0 l/m 0 min 2 min 33 W/m 22,5 km/h (4 Bft) 95,74 %
05.01.2022 14:30 4,7 C 4,4 C 1,7 C 92 % 1006,7 hPa 0,0 l/m 0 min 2 min 26 W/m 19,3 km/h (3 Bft) 100,00 %
05.01.2022 14:32 4,7 C 4,4 C 1,7 C 92 % 1006,8 hPa 0,0 l/m 0 min 2 min 22 W/m 16,1 km/h (3 Bft) 100,00 %
05.01.2022 14:34 4,7 C 4,4 C 1,7 C 92 % 1006,9 hPa 0,0 l/m 0 min 0 min 22 W/m 22,5 km/h (4 Bft) 100,00 %
05.01.2022 14:36 4,7 C 4,4 C 1,7 C 92 % 1006,8 hPa 0,0 l/m 0 min 0 min 26 W/m 16,1 km/h (3 Bft) 100,00 %
05.01.2022 14:38 4,7 C 4,4 C 1,7 C 92 % 1006,9 hPa 0,0 l/m 0 min 0 min 34 W/m 16,1 km/h (3 Bft) 100,00 %
05.01.2022 14:40 4,8 C 4,4 C 1,7 C 92 % 1006,9 hPa 0,0 l/m 0 min 0 min 64 W/m 19,3 km/h (3 Bft) 95,74 %
05.01.2022 14:42 4,8 C 4,4 C 2,2 C 92 % 1006,8 hPa 0,0 l/m 0 min 0 min 61 W/m 16,1 km/h (3 Bft) 97,87 %
05.01.2022 14:44 4,8 C 4,4 C 2,2 C 92 % 1006,8 hPa 0,0 l/m 0 min 0 min 58 W/m 32,2 km/h (5 Bft) 95,74 %
05.01.2022 14:46 4,8 C 4,4 C 2,2 C 92 % 1006,8 hPa 0,0 l/m 0 min 0 min 60 W/m 19,3 km/h (3 Bft) 100,00 %
05.01.2022 14:48 4,8 C 4,4 C 2,2 C 92 % 1006,9 hPa 0,0 l/m 0 min 0 min 56 W/m 22,5 km/h (4 Bft) 93,62 %
05.01.2022 14:50 4,9 C 4,4 C 2,2 C 92 % 1006,8 hPa 0,0 l/m 0 min 0 min 40 W/m 19,3 km/h (3 Bft) 95,74 %
05.01.2022 14:52 4,9 C 4,4 C 2,2 C 92 % 1006,9 hPa 0,0 l/m 0 min 2 min 52 W/m 29,0 km/h (5 Bft) 97,83 %
05.01.2022 14:54 4,9 C 4,4 C 2,2 C 92 % 1007,0 hPa 0,0 l/m 0 min 2 min 51 W/m 19,3 km/h (3 Bft) 97,87 %
05.01.2022 14:56 4,9 C 4,4 C 2,2 C 92 % 1007,0 hPa 0,0 l/m 0 min 2 min 52 W/m 22,5 km/h (4 Bft) 97,87 %
05.01.2022 14:58 4,9 C 4,4 C 2,2 C 92 % 1007,0 hPa 0,0 l/m 0 min 2 min 52 W/m 16,1 km/h (3 Bft) 95,74 %
05.01.2022 15:00 4,9 C 4,4 C 2,2 C 92 % 1007,0 hPa 0,0 l/m 0 min 2 min 48 W/m 19,3 km/h (3 Bft) 95,74 %
05.01.2022 15:02 4,9 C 4,4 C 2,2 C 92 % 1007,0 hPa 0,0 l/m 0 min 2 min 29 W/m 25,7 km/h (4 Bft) 95,65 %
05.01.2022 15:04 4,9 C 4,4 C 1,7 C 92 % 1007,0 hPa 0,0 l/m 0 min 2 min 18 W/m 29,0 km/h (5 Bft) 95,74 %
05.01.2022 15:06 4,9 C 4,4 C 1,7 C 92 % 1007,0 hPa 0,0 l/m 0 min 2 min 17 W/m 22,5 km/h (4 Bft) 95,74 %
05.01.2022 15:08 4,8 C 4,4 C 1,7 C 92 % 1007,1 hPa 0,0 l/m 0 min 2 min 19 W/m 16,1 km/h (3 Bft) 93,62 %
05.01.2022 15:10 4,8 C 4,4 C 1,7 C 92 % 1007,1 hPa 0,2 l/m 0 min 2 min 25 W/m 19,3 km/h (3 Bft) 93,62 %
05.01.2022 15:12 4,8 C 3,9 C 1,7 C 92 % 1007,2 hPa 0,0 l/m 0 min 2 min 24 W/m 16,1 km/h (3 Bft) 93,62 %
05.01.2022 15:14 4,8 C 3,9 C 1,7 C 92 % 1007,2 hPa 0,0 l/m 0 min 0 min 25 W/m 16,1 km/h (3 Bft) 97,83 %
05.01.2022 15:16 4,8 C 4,4 C 1,7 C 92 % 1007,2 hPa 0,0 l/m 0 min 0 min 26 W/m 22,5 km/h (4 Bft) 95,74 %
05.01.2022 15:18 4,8 C 4,4 C 1,7 C 92 % 1007,3 hPa 0,0 l/m 0 min 2 min 22 W/m 25,7 km/h (4 Bft) 95,74 %
05.01.2022 15:20 4,8 C 4,4 C 1,7 C 92 % 1007,3 hPa 0,0 l/m 0 min 2 min 20 W/m 16,1 km/h (3 Bft) 95,74 %
05.01.2022 15:22 4,8 C 4,4 C 1,7 C 93 % 1007,3 hPa 0,0 l/m 0 min 0 min 17 W/m 19,3 km/h (3 Bft) 97,87 %
05.01.2022 15:24 4,8 C 4,4 C 1,7 C 93 % 1007,3 hPa 0,0 l/m 0 min 0 min 17 W/m 12,9 km/h (3 Bft) 97,87 %
05.01.2022 15:26 4,8 C 4,4 C 1,7 C 93 % 1007,3 hPa 0,0 l/m 0 min 0 min 12 W/m 25,7 km/h (4 Bft) 95,65 %
05.01.2022 15:28 4,8 C 4,4 C 1,7 C 93 % 1007,3 hPa 0,0 l/m 0 min 0 min 9 W/m 25,7 km/h (4 Bft) 97,87 %
05.01.2022 15:30 4,8 C 4,4 C 1,7 C 92 % 1007,3 hPa 0,0 l/m 0 min 0 min 10 W/m 22,5 km/h (4 Bft) 97,87 %
05.01.2022 15:32 4,9 C 4,4 C 1,7 C 92 % 1007,4 hPa 0,0 l/m 0 min 2 min 11 W/m 22,5 km/h (4 Bft) 95,74 %
05.01.2022 15:34 4,9 C 4,4 C 1,7 C 92 % 1007,3 hPa 0,0 l/m 0 min 2 min 11 W/m 29,0 km/h (5 Bft) 97,87 %
05.01.2022 15:36 4,9 C 4,4 C 1,7 C 92 % 1007,5 hPa 0,0 l/m 0 min 2 min 10 W/m 22,5 km/h (4 Bft) 97,87 %
05.01.2022 15:38 4,9 C 4,4 C 1,7 C 92 % 1007,5 hPa 0,0 l/m 0 min 2 min 8 W/m 19,3 km/h (3 Bft) 97,83 %
05.01.2022 15:40 4,9 C 4,4 C 1,7 C 92 % 1007,5 hPa 0,0 l/m 0 min 2 min 9 W/m 25,7 km/h (4 Bft) 95,74 %
05.01.2022 15:42 4,9 C 4,4 C 1,7 C 92 % 1007,6 hPa 0,0 l/m 0 min 2 min 11 W/m 25,7 km/h (4 Bft) 97,87 %
05.01.2022 15:44 4,9 C 4,4 C 1,7 C 92 % 1007,6 hPa 0,0 l/m 0 min 2 min 12 W/m 22,5 km/h (4 Bft) 100,00 %
05.01.2022 15:46 4,9 C 4,4 C 1,7 C 92 % 1007,7 hPa 0,0 l/m 0 min 2 min 22 W/m 19,3 km/h (3 Bft) 100,00 %
05.01.2022 15:48 4,9 C 4,4 C 1,7 C 92 % 1007,7 hPa 0,0 l/m 0 min 2 min 29 W/m 16,1 km/h (3 Bft) 100,00 %
05.01.2022 15:50 4,9 C 4,4 C 1,7 C 92 % 1007,7 hPa 0,0 l/m 0 min 2 min 21 W/m 25,7 km/h (4 Bft) 100,00 %
05.01.2022 15:52 4,9 C 4,4 C 1,7 C 92 % 1007,7 hPa 0,0 l/m 0 min 2 min 14 W/m 25,7 km/h (4 Bft) 97,87 %
05.01.2022 15:54 4,9 C 4,4 C 1,7 C 92 % 1007,7 hPa 0,0 l/m 0 min 2 min 11 W/m 22,5 km/h (4 Bft) 100,00 %
05.01.2022 15:56 4,9 C 4,4 C 1,7 C 92 % 1007,8 hPa 0,0 l/m 0 min 2 min 11 W/m 16,1 km/h (3 Bft) 100,00 %
05.01.2022 15:58 4,9 C 4,4 C 1,7 C 92 % 1007,8 hPa 0,0 l/m 0 min 0 min 14 W/m 19,3 km/h (3 Bft) 97,87 %
05.01.2022 16:00 4,9 C 4,4 C 1,7 C 92 % 1007,9 hPa 0,0 l/m 0 min 2 min 16 W/m 19,3 km/h (3 Bft) 95,65 %
05.01.2022 16:02 4,9 C 4,4 C 1,7 C 92 % 1007,8 hPa 0,0 l/m 0 min 0 min 26 W/m 16,1 km/h (3 Bft) 97,87 %
05.01.2022 16:04 4,9 C 4,4 C 1,7 C 92 % 1007,8 hPa 0,0 l/m 0 min 0 min 34 W/m 19,3 km/h (3 Bft) 97,87 %
05.01.2022 16:06 4,9 C 4,4 C 1,7 C 92 % 1007,9 hPa 0,0 l/m 0 min 0 min 27 W/m 16,1 km/h (3 Bft) 97,87 %
05.01.2022 16:08 5,0 C 4,4 C 1,7 C 92 % 1007,9 hPa 0,0 l/m 0 min 0 min 19 W/m 12,9 km/h (3 Bft) 95,74 %
05.01.2022 16:10 5,0 C 4,4 C 1,7 C 92 % 1008,0 hPa 0,0 l/m 0 min 0 min 22 W/m 16,1 km/h (3 Bft) 97,87 %
05.01.2022 16:12 5,0 C 4,4 C 1,7 C 92 % 1008,0 hPa 0,0 l/m 0 min 0 min 22 W/m 22,5 km/h (4 Bft) 93,48 %
05.01.2022 16:14 5,0 C 4,4 C 1,7 C 92 % 1008,0 hPa 0,0 l/m 0 min 2 min 17 W/m 38,6 km/h (5 Bft) 97,87 %
05.01.2022 16:16 5,1 C 4,4 C 1,7 C 92 % 1008,1 hPa 0,0 l/m 0 min 2 min 9 W/m 19,3 km/h (3 Bft) 95,74 %
05.01.2022 16:18 5,1 C 4,4 C 1,7 C 92 % 1008,2 hPa 0,0 l/m 0 min 2 min 6 W/m 32,2 km/h (5 Bft) 95,74 %
05.01.2022 16:20 5,1 C 4,4 C 1,7 C 92 % 1008,2 hPa 0,0 l/m 0 min 2 min 1 W/m 32,2 km/h (5 Bft) 97,87 %
05.01.2022 16:22 5,1 C 4,4 C 1,7 C 92 % 1008,3 hPa 0,0 l/m 0 min 2 min 0 W/m 19,3 km/h (3 Bft) 95,74 %
05.01.2022 16:24 5,1 C 4,4 C 2,2 C 92 % 1008,3 hPa 0,0 l/m 0 min 2 min 0 W/m 25,7 km/h (4 Bft) 100,00 %
05.01.2022 16:26 5,1 C 4,4 C 2,2 C 92 % 1008,4 hPa 0,0 l/m 0 min 2 min 0 W/m 16,1 km/h (3 Bft) 97,87 %
05.01.2022 16:28 5,1 C 4,4 C 2,2 C 92 % 1008,5 hPa 0,0 l/m 0 min 2 min 0 W/m 25,7 km/h (4 Bft) 97,87 %
05.01.2022 16:30 5,1 C 4,4 C 1,7 C 92 % 1008,5 hPa 0,2 l/m 0 min 2 min 0 W/m 22,5 km/h (4 Bft) 97,87 %
05.01.2022 16:32 5,1 C 4,4 C 1,7 C 92 % 1008,6 hPa 0,0 l/m 0 min 2 min 0 W/m 22,5 km/h (4 Bft) 97,87 %
05.01.2022 16:34 5,1 C 4,4 C 1,7 C 92 % 1008,6 hPa 0,0 l/m 0 min 2 min 0 W/m 16,1 km/h (3 Bft) 97,87 %
05.01.2022 16:36 5,1 C 4,4 C 1,7 C 93 % 1008,6 hPa 0,2 l/m 0 min 2 min 0 W/m 29,0 km/h (5 Bft) 95,65 %
05.01.2022 16:38 5,0 C 3,9 C 1,7 C 93 % 1008,7 hPa 0,0 l/m 0 min 2 min 0 W/m 16,1 km/h (3 Bft) 97,87 %
05.01.2022 16:40 5,1 C 3,9 C 1,7 C 93 % 1008,7 hPa 0,0 l/m 0 min 2 min 0 W/m 12,9 km/h (3 Bft) 95,74 %
05.01.2022 16:42 5,0 C 3,9 C 1,7 C 93 % 1008,7 hPa 0,0 l/m 0 min 2 min 0 W/m 16,1 km/h (3 Bft) 95,74 %
05.01.2022 16:44 5,0 C 3,9 C 1,7 C 93 % 1008,7 hPa 0,0 l/m 0 min 2 min 0 W/m 19,3 km/h (3 Bft) 95,74 %
05.01.2022 16:46 5,0 C 3,9 C 1,7 C 93 % 1008,9 hPa 0,0 l/m 0 min 0 min 0 W/m 16,1 km/h (3 Bft) 95,74 %
05.01.2022 16:48 5,0 C 4,4 C 1,7 C 93 % 1008,9 hPa 0,0 l/m 0 min 0 min 0 W/m 12,9 km/h (3 Bft) 95,65 %
05.01.2022 16:50 4,9 C 4,4 C 1,7 C 93 % 1008,9 hPa 0,0 l/m 0 min 0 min 0 W/m 19,3 km/h (3 Bft) 97,87 %
05.01.2022 16:52 4,9 C 4,4 C 1,7 C 94 % 1008,9 hPa 0,0 l/m 0 min 0 min 0 W/m 16,1 km/h (3 Bft) 97,87 %
05.01.2022 16:54 4,9 C 4,4 C 1,7 C 94 % 1008,9 hPa 0,0 l/m 0 min 2 min 0 W/m 16,1 km/h (3 Bft) 95,74 %
05.01.2022 16:56 4,9 C 4,4 C 1,7 C 94 % 1008,9 hPa 0,0 l/m 0 min 2 min 0 W/m 22,5 km/h (4 Bft) 93,62 %
05.01.2022 16:58 4,9 C 4,4 C 1,7 C 94 % 1008,9 hPa 0,0 l/m 0 min 2 min 0 W/m 16,1 km/h (3 Bft) 97,87 %
05.01.2022 17:00 4,9 C 4,4 C 1,7 C 94 % 1009,0 hPa 0,0 l/m 0 min 2 min 0 W/m 19,3 km/h (3 Bft) 95,65 %
05.01.2022 17:02 4,8 C 3,9 C 1,7 C 94 % 1009,1 hPa 0,0 l/m 0 min 2 min 0 W/m 16,1 km/h (3 Bft) 95,74 %
05.01.2022 17:04 4,8 C 3,9 C 1,7 C 94 % 1009,1 hPa 0,0 l/m 0 min 2 min 0 W/m 19,3 km/h (3 Bft) 97,87 %
05.01.2022 17:06 4,8 C 3,9 C 1,7 C 94 % 1009,0 hPa 0,0 l/m 0 min 2 min 0 W/m 25,7 km/h (4 Bft) 95,74 %
05.01.2022 17:08 4,8 C 4,4 C 1,7 C 94 % 1009,1 hPa 0,0 l/m 0 min 0 min 0 W/m 22,5 km/h (4 Bft) 97,87 %
05.01.2022 17:10 4,8 C 4,4 C 1,7 C 94 % 1009,2 hPa 0,0 l/m 0 min 0 min 0 W/m 16,1 km/h (3 Bft) 97,87 %
05.01.2022 17:12 4,8 C 4,4 C 1,7 C 94 % 1009,1 hPa 0,0 l/m 0 min 0 min 0 W/m 29,0 km/h (5 Bft) 100,00 %
05.01.2022 17:14 4,8 C 4,4 C 1,7 C 94 % 1009,3 hPa 0,0 l/m 0 min 0 min 0 W/m 19,3 km/h (3 Bft) 97,87 %
05.01.2022 17:16 4,8 C 4,4 C 1,7 C 94 % 1009,2 hPa 0,0 l/m 0 min 0 min 0 W/m 22,5 km/h (4 Bft) 97,87 %
05.01.2022 17:18 4,8 C 4,4 C 1,7 C 94 % 1009,2 hPa 0,0 l/m 0 min 2 min 0 W/m 19,3 km/h (3 Bft) 100,00 %
05.01.2022 17:20 4,8 C 4,4 C 1,7 C 94 % 1009,3 hPa 0,2 l/m 0 min 2 min 0 W/m 12,9 km/h (3 Bft) 100,00 %
05.01.2022 17:22 4,8 C 3,9 C 1,7 C 94 % 1009,4 hPa 0,0 l/m 0 min 2 min 0 W/m 9,7 km/h (2 Bft) 100,00 %
05.01.2022 17:24 4,8 C 3,9 C 1,7 C 94 % 1009,4 hPa 0,0 l/m 0 min 2 min 0 W/m 16,1 km/h (3 Bft) 100,00 %
05.01.2022 17:26 4,8 C 3,9 C 1,7 C 94 % 1009,4 hPa 0,0 l/m 0 min 2 min 0 W/m 12,9 km/h (3 Bft) 97,87 %
05.01.2022 17:28 4,8 C 3,9 C 1,7 C 94 % 1009,5 hPa 0,0 l/m 0 min 2 min 0 W/m 12,9 km/h (3 Bft) 100,00 %
05.01.2022 17:30 4,8 C 3,9 C 1,7 C 95 % 1009,5 hPa 0,0 l/m 0 min 2 min 0 W/m 16,1 km/h (3 Bft) 100,00 %
05.01.2022 17:32 4,8 C 3,9 C 1,7 C 95 % 1009,5 hPa 0,0 l/m 0 min 2 min 0 W/m 12,9 km/h (3 Bft) 97,87 %
05.01.2022 17:34 4,8 C 3,9 C 1,7 C 95 % 1009,5 hPa 0,0 l/m 0 min 0 min 0 W/m 12,9 km/h (3 Bft) 97,87 %
05.01.2022 17:36 4,8 C 3,9 C 1,7 C 95 % 1009,5 hPa 0,0 l/m 0 min 0 min 0 W/m 12,9 km/h (3 Bft) 95,65 %
05.01.2022 17:38 4,8 C 3,9 C 1,7 C 95 % 1009,6 hPa 0,0 l/m 0 min 0 min 0 W/m 22,5 km/h (4 Bft) 95,74 %
05.01.2022 17:40 4,8 C 3,9 C 1,7 C 95 % 1009,6 hPa 0,0 l/m 0 min 0 min 0 W/m 19,3 km/h (3 Bft) 97,87 %
05.01.2022 17:42 4,8 C 3,9 C 1,7 C 95 % 1009,7 hPa 0,0 l/m 0 min 0 min 0 W/m 12,9 km/h (3 Bft) 95,74 %
05.01.2022 17:44 4,8 C 3,9 C 1,7 C 95 % 1009,7 hPa 0,0 l/m 0 min 0 min 0 W/m 12,9 km/h (3 Bft) 95,74 %
05.01.2022 17:46 4,8 C 3,9 C 1,7 C 95 % 1009,7 hPa 0,0 l/m 0 min 0 min 0 W/m 16,1 km/h (3 Bft) 95,74 %
05.01.2022 17:48 4,8 C 3,9 C 1,7 C 95 % 1009,8 hPa 0,0 l/m 0 min 0 min 0 W/m 22,5 km/h (4 Bft) 97,83 %
05.01.2022 17:50 4,8 C 3,9 C 1,7 C 95 % 1009,7 hPa 0,0 l/m 0 min 0 min 0 W/m 16,1 km/h (3 Bft) 97,87 %
05.01.2022 17:52 4,8 C 3,9 C 1,7 C 95 % 1009,8 hPa 0,0 l/m 0 min 0 min 0 W/m 16,1 km/h (3 Bft) 97,87 %
05.01.2022 17:54 4,8 C 3,9 C 1,7 C 95 % 1009,9 hPa 0,0 l/m 0 min 0 min 0 W/m 9,7 km/h (2 Bft) 97,87 %
05.01.2022 17:56 4,8 C 3,9 C 1,7 C 95 % 1009,9 hPa 0,0 l/m 0 min 0 min 0 W/m 16,1 km/h (3 Bft) 97,87 %
05.01.2022 17:58 4,8 C 3,9 C 1,7 C 95 % 1009,9 hPa 0,0 l/m 0 min 0 min 0 W/m 19,3 km/h (3 Bft) 95,74 %
05.01.2022 18:00 4,8 C 4,4 C 1,7 C 95 % 1009,9 hPa 0,0 l/m 0 min 0 min 0 W/m 16,1 km/h (3 Bft) 95,65 %
05.01.2022 18:02 4,8 C 3,9 C 1,7 C 95 % 1010,0 hPa 0,0 l/m 0 min 0 min 0 W/m 22,5 km/h (4 Bft) 97,87 %
05.01.2022 18:04 4,8 C 4,4 C 1,7 C 95 % 1010,0 hPa 0,0 l/m 0 min 0 min 0 W/m 19,3 km/h (3 Bft) 97,87 %
05.01.2022 18:06 4,8 C 3,9 C 1,7 C 95 % 1010,0 hPa 0,0 l/m 0 min 0 min 0 W/m 19,3 km/h (3 Bft) 97,87 %
05.01.2022 18:08 4,8 C 4,4 C 1,7 C 95 % 1010,0 hPa 0,0 l/m 0 min 0 min 0 W/m 16,1 km/h (3 Bft) 97,87 %
05.01.2022 18:10 4,8 C 4,4 C 1,7 C 95 % 1010,1 hPa 0,0 l/m 0 min 0 min 0 W/m 19,3 km/h (3 Bft) 97,83 %
05.01.2022 18:12 4,8 C 4,4 C 2,2 C 95 % 1010,0 hPa 0,0 l/m 0 min 0 min 0 W/m 19,3 km/h (3 Bft) 97,87 %
05.01.2022 18:14 4,8 C 4,4 C 2,2 C 95 % 1010,1 hPa 0,0 l/m 0 min 0 min 0 W/m 25,7 km/h (4 Bft) 95,74 %
05.01.2022 18:16 4,8 C 4,4 C 2,2 C 95 % 1010,2 hPa 0,0 l/m 0 min 0 min 0 W/m 19,3 km/h (3 Bft) 100,00 %
05.01.2022 18:18 4,8 C 4,4 C 2,2 C 95 % 1010,1 hPa 0,0 l/m 0 min 0 min 0 W/m 16,1 km/h (3 Bft) 100,00 %
05.01.2022 18:20 4,8 C 4,4 C 2,2 C 95 % 1010,2 hPa 0,0 l/m 0 min 0 min 0 W/m 16,1 km/h (3 Bft) 100,00 %
05.01.2022 18:22 4,8 C 4,4 C 2,2 C 95 % 1010,2 hPa 0,0 l/m 0 min 0 min 0 W/m 22,5 km/h (4 Bft) 100,00 %
05.01.2022 18:24 4,8 C 4,4 C 1,7 C 95 % 1010,2 hPa 0,0 l/m 0 min 0 min 0 W/m 22,5 km/h (4 Bft) 100,00 %
05.01.2022 18:26 4,8 C 3,9 C 1,7 C 95 % 1010,2 hPa 0,0 l/m 0 min 0 min 0 W/m 16,1 km/h (3 Bft) 100,00 %
05.01.2022 18:28 4,8 C 3,9 C 1,7 C 95 % 1010,2 hPa 0,0 l/m 0 min 0 min 0 W/m 16,1 km/h (3 Bft) 100,00 %
05.01.2022 18:30 4,8 C 3,9 C 1,7 C 95 % 1010,3 hPa 0,0 l/m 0 min 0 min 0 W/m 12,9 km/h (3 Bft) 97,87 %
05.01.2022 18:32 4,8 C 3,9 C 1,7 C 95 % 1010,3 hPa 0,0 l/m 0 min 0 min 0 W/m 16,1 km/h (3 Bft) 95,74 %
05.01.2022 18:34 4,7 C 3,9 C 1,7 C 95 % 1010,4 hPa 0,0 l/m 0 min 0 min 0 W/m 25,7 km/h (4 Bft) 97,83 %
05.01.2022 18:36 4,7 C 3,9 C 1,7 C 95 % 1010,4 hPa 0,0 l/m 0 min 0 min 0 W/m 22,5 km/h (4 Bft) 97,87 %
05.01.2022 18:38 4,7 C 3,9 C 1,7 C 95 % 1010,3 hPa 0,0 l/m 0 min 0 min 0 W/m 12,9 km/h (3 Bft) 97,87 %
05.01.2022 18:40 4,7 C 3,9 C 1,7 C 95 % 1010,3 hPa 0,0 l/m 0 min 0 min 0 W/m 16,1 km/h (3 Bft) 97,87 %
05.01.2022 18:42 4,7 C 3,9 C 1,7 C 95 % 1010,4 hPa 0,0 l/m 0 min 0 min 0 W/m 19,3 km/h (3 Bft) 97,87 %
05.01.2022 18:44 4,7 C 3,9 C 1,7 C 95 % 1010,4 hPa 0,0 l/m 0 min 0 min 0 W/m 19,3 km/h (3 Bft) 97,87 %
05.01.2022 18:46 4,7 C 3,9 C 1,7 C 95 % 1010,5 hPa 0,0 l/m 0 min 0 min 0 W/m 16,1 km/h (3 Bft) 97,83 %
05.01.2022 18:48 4,7 C 3,9 C 1,7 C 95 % 1010,5 hPa 0,0 l/m 0 min 0 min 0 W/m 16,1 km/h (3 Bft) 95,74 %
05.01.2022 18:50 4,8 C 3,9 C 1,7 C 95 % 1010,6 hPa 0,0 l/m 0 min 0 min 0 W/m 16,1 km/h (3 Bft) 97,87 %
05.01.2022 18:52 4,7 C 3,9 C 1,7 C 95 % 1010,6 hPa 0,0 l/m 0 min 0 min 0 W/m 12,9 km/h (3 Bft) 95,74 %
05.01.2022 18:54 4,7 C 3,9 C 1,7 C 95 % 1010,6 hPa 0,0 l/m 0 min 0 min 0 W/m 19,3 km/h (3 Bft) 97,87 %
05.01.2022 18:56 4,7 C 3,9 C 1,7 C 95 % 1010,7 hPa 0,0 l/m 0 min 0 min 0 W/m 16,1 km/h (3 Bft) 95,74 %
05.01.2022 18:58 4,7 C 3,9 C 1,7 C 95 % 1010,7 hPa 0,0 l/m 0 min 0 min 0 W/m 22,5 km/h (4 Bft) 97,87 %
05.01.2022 19:00 4,8 C 3,9 C 2,2 C 95 % 1010,7 hPa 0,0 l/m 0 min 0 min 0 W/m 12,9 km/h (3 Bft) 100,00 %
05.01.2022 19:02 4,8 C 3,9 C 2,2 C 95 % 1010,7 hPa 0,0 l/m 0 min 0 min 0 W/m 16,1 km/h (3 Bft) 97,87 %
05.01.2022 19:04 4,8 C 3,9 C 1,7 C 95 % 1010,6 hPa 0,0 l/m 0 min 0 min 0 W/m 12,9 km/h (3 Bft) 100,00 %
05.01.2022 19:06 4,7 C 3,9 C 2,2 C 95 % 1010,7 hPa 0,0 l/m 0 min 0 min 0 W/m 19,3 km/h (3 Bft) 97,87 %
05.01.2022 19:08 4,8 C 3,9 C 2,2 C 95 % 1010,8 hPa 0,0 l/m 0 min 0 min 0 W/m 12,9 km/h (3 Bft) 100,00 %
05.01.2022 19:10 4,8 C 3,9 C 2,2 C 95 % 1010,8 hPa 0,0 l/m 0 min 0 min 0 W/m 12,9 km/h (3 Bft) 100,00 %
05.01.2022 19:12 4,8 C 3,9 C 2,2 C 95 % 1010,7 hPa 0,0 l/m 0 min 0 min 0 W/m 16,1 km/h (3 Bft) 97,87 %
05.01.2022 19:14 4,7 C 3,9 C 2,2 C 95 % 1010,7 hPa 0,0 l/m 0 min 0 min 0 W/m 12,9 km/h (3 Bft) 97,87 %
05.01.2022 19:16 4,7 C 3,9 C 2,2 C 95 % 1010,8 hPa 0,0 l/m 0 min 0 min 0 W/m 19,3 km/h (3 Bft) 97,87 %
05.01.2022 19:18 4,8 C 3,9 C 2,2 C 95 % 1010,8 hPa 0,0 l/m 0 min 2 min 0 W/m 19,3 km/h (3 Bft) 95,74 %
05.01.2022 19:20 4,8 C 4,4 C 2,2 C 95 % 1010,9 hPa 0,0 l/m 0 min 2 min 0 W/m 16,1 km/h (3 Bft) 97,87 %
05.01.2022 19:22 4,8 C 4,4 C 2,2 C 95 % 1011,0 hPa 0,0 l/m 0 min 2 min 0 W/m 22,5 km/h (4 Bft) 95,65 %
05.01.2022 19:24 4,8 C 4,4 C 2,2 C 95 % 1011,0 hPa 0,0 l/m 0 min 2 min 0 W/m 16,1 km/h (3 Bft) 97,87 %
05.01.2022 19:26 4,8 C 4,4 C 2,2 C 95 % 1011,0 hPa 0,2 l/m 0 min 2 min 0 W/m 16,1 km/h (3 Bft) 95,74 %
05.01.2022 19:28 4,8 C 4,4 C 2,2 C 95 % 1011,1 hPa 0,0 l/m 0 min 2 min 0 W/m 19,3 km/h (3 Bft) 95,74 %
05.01.2022 19:30 4,8 C 4,4 C 2,2 C 95 % 1011,2 hPa 0,0 l/m 0 min 2 min 0 W/m 22,5 km/h (4 Bft) 97,87 %
05.01.2022 19:32 4,8 C 3,9 C 2,2 C 95 % 1011,2 hPa 0,0 l/m 0 min 2 min 0 W/m 12,9 km/h (3 Bft) 97,87 %
05.01.2022 19:34 4,8 C 3,9 C 2,2 C 95 % 1011,1 hPa 0,0 l/m 0 min 2 min 0 W/m 25,7 km/h (4 Bft) 97,83 %
05.01.2022 19:36 4,8 C 3,9 C 2,2 C 95 % 1011,1 hPa 0,0 l/m 0 min 2 min 0 W/m 12,9 km/h (3 Bft) 97,87 %
05.01.2022 19:38 4,8 C 3,9 C 2,2 C 96 % 1011,3 hPa 0,0 l/m 0 min 0 min 0 W/m 12,9 km/h (3 Bft) 97,87 %
05.01.2022 19:40 4,8 C 3,9 C 2,2 C 96 % 1011,3 hPa 0,0 l/m 0 min 0 min 0 W/m 16,1 km/h (3 Bft) 97,87 %
05.01.2022 19:42 4,8 C 3,9 C 2,2 C 96 % 1011,3 hPa 0,2 l/m 0 min 0 min 0 W/m 16,1 km/h (3 Bft) 97,87 %
05.01.2022 19:44 4,8 C 3,9 C 2,2 C 96 % 1011,3 hPa 0,0 l/m 0 min 0 min 0 W/m 19,3 km/h (3 Bft) 97,87 %
05.01.2022 19:46 4,8 C 3,9 C 2,2 C 96 % 1011,3 hPa 0,0 l/m 0 min 2 min 0 W/m 16,1 km/h (3 Bft) 95,65 %
05.01.2022 19:48 4,8 C 3,9 C 2,2 C 96 % 1011,3 hPa 0,0 l/m 0 min 0 min 0 W/m 12,9 km/h (3 Bft) 70,21 %
05.01.2022 19:50 4,8 C 3,9 C 2,2 C 96 % 1011,4 hPa 0,0 l/m 0 min 0 min 0 W/m 12,9 km/h (3 Bft) 84,09 %
05.01.2022 19:52 4,8 C 3,9 C 2,2 C 96 % 1011,4 hPa 0,0 l/m 0 min 0 min 0 W/m 12,9 km/h (3 Bft) 97,87 %
05.01.2022 19:54 4,8 C 3,9 C 2,2 C 96 % 1011,4 hPa 0,0 l/m 0 min 0 min 0 W/m 32,2 km/h (5 Bft) 97,87 %
05.01.2022 19:56 4,8 C 3,9 C 2,2 C 96 % 1011,6 hPa 0,0 l/m 0 min 0 min 0 W/m 12,9 km/h (3 Bft) 97,87 %
05.01.2022 19:58 4,8 C 3,9 C 2,2 C 96 % 1011,6 hPa 0,0 l/m 0 min 0 min 0 W/m 25,7 km/h (4 Bft) 97,83 %
05.01.2022 20:00 4,8 C 3,9 C 2,2 C 96 % 1011,6 hPa 0,0 l/m 0 min 0 min 0 W/m 12,9 km/h (3 Bft) 95,74 %
05.01.2022 20:02 4,8 C 3,9 C 2,2 C 96 % 1011,6 hPa 0,0 l/m 0 min 0 min 0 W/m 19,3 km/h (3 Bft) 95,74 %
05.01.2022 20:04 4,8 C 3,9 C 2,2 C 96 % 1011,6 hPa 0,0 l/m 0 min 0 min 0 W/m 12,9 km/h (3 Bft) 93,62 %
05.01.2022 20:06 4,8 C 3,9 C 2,2 C 96 % 1011,6 hPa 0,0 l/m 0 min 0 min 0 W/m 16,1 km/h (3 Bft) 95,74 %
05.01.2022 20:08 4,8 C 4,4 C 2,2 C 96 % 1011,7 hPa 0,0 l/m 0 min 2 min 0 W/m 19,3 km/h (3 Bft) 95,74 %
05.01.2022 20:10 4,8 C 3,9 C 2,2 C 96 % 1011,7 hPa 0,0 l/m 0 min 0 min 0 W/m 16,1 km/h (3 Bft) 97,83 %
05.01.2022 20:12 4,8 C 3,9 C 2,2 C 96 % 1011,8 hPa 0,0 l/m 0 min 0 min 0 W/m 12,9 km/h (3 Bft) 93,62 %
05.01.2022 20:14 4,8 C 3,9 C 2,2 C 96 % 1011,8 hPa 0,0 l/m 0 min 0 min 0 W/m 16,1 km/h (3 Bft) 95,74 %
05.01.2022 20:16 4,7 C 3,9 C 2,2 C 96 % 1011,8 hPa 0,0 l/m 0 min 0 min 0 W/m 12,9 km/h (3 Bft) 95,74 %
05.01.2022 20:18 4,7 C 3,9 C 2,2 C 96 % 1011,9 hPa 0,0 l/m 0 min 0 min 0 W/m 16,1 km/h (3 Bft) 95,74 %
05.01.2022 20:20 4,7 C 3,9 C 2,2 C 96 % 1011,9 hPa 0,0 l/m 0 min 0 min 0 W/m 16,1 km/h (3 Bft) 95,74 %
05.01.2022 20:22 4,7 C 3,9 C 2,2 C 96 % 1011,9 hPa 0,0 l/m 0 min 0 min 0 W/m 19,3 km/h (3 Bft) 93,48 %
05.01.2022 20:24 4,7 C 3,9 C 2,2 C 96 % 1012,0 hPa 0,0 l/m 0 min 0 min 0 W/m 25,7 km/h (4 Bft) 95,74 %
05.01.2022 20:26 4,7 C 3,9 C 2,2 C 96 % 1012,0 hPa 0,0 l/m 0 min 0 min 0 W/m 9,7 km/h (2 Bft) 95,74 %
05.01.2022 20:28 4,7 C 3,9 C 2,2 C 96 % 1012,1 hPa 0,0 l/m 0 min 0 min 0 W/m 12,9 km/h (3 Bft) 95,74 %
05.01.2022 20:30 4,6 C 3,9 C 1,7 C 96 % 1012,1 hPa 0,0 l/m 0 min 0 min 0 W/m 12,9 km/h (3 Bft) 95,74 %
05.01.2022 20:32 4,6 C 3,9 C 1,7 C 96 % 1012,1 hPa 0,0 l/m 0 min 0 min 0 W/m 16,1 km/h (3 Bft) 93,62 %
05.01.2022 20:34 4,6 C 3,9 C 1,7 C 96 % 1012,1 hPa 0,0 l/m 0 min 0 min 0 W/m 12,9 km/h (3 Bft) 95,65 %
05.01.2022 20:36 4,6 C 3,9 C 1,7 C 96 % 1012,1 hPa 0,0 l/m 0 min 0 min 0 W/m 16,1 km/h (3 Bft) 95,74 %
05.01.2022 20:38 4,6 C 3,9 C 1,7 C 96 % 1012,2 hPa 0,0 l/m 0 min 0 min 0 W/m 12,9 km/h (3 Bft) 95,74 %
05.01.2022 20:40 4,5 C 3,9 C 1,7 C 96 % 1012,2 hPa 0,0 l/m 0 min 0 min 0 W/m 6,4 km/h (2 Bft) 95,74 %
05.01.2022 20:42 4,5 C 3,9 C 1,7 C 96 % 1012,3 hPa 0,0 l/m 0 min 0 min 0 W/m 16,1 km/h (3 Bft) 95,74 %
05.01.2022 20:44 4,4 C 3,9 C 1,7 C 96 % 1012,3 hPa 0,0 l/m 0 min 0 min 0 W/m 12,9 km/h (3 Bft) 95,74 %
05.01.2022 20:46 4,4 C 3,9 C 1,7 C 96 % 1012,3 hPa 0,0 l/m 0 min 0 min 0 W/m 16,1 km/h (3 Bft) 97,83 %
05.01.2022 20:48 4,4 C 3,9 C 1,7 C 96 % 1012,3 hPa 0,0 l/m 0 min 0 min 0 W/m 9,7 km/h (2 Bft) 95,74 %
05.01.2022 20:50 4,4 C 3,9 C 1,7 C 96 % 1012,3 hPa 0,0 l/m 0 min 0 min 0 W/m 12,9 km/h (3 Bft) 100,00 %
05.01.2022 20:52 4,4 C 3,9 C 1,7 C 96 % 1012,3 hPa 0,0 l/m 0 min 0 min 0 W/m 16,1 km/h (3 Bft) 100,00 %
05.01.2022 20:54 4,4 C 3,9 C 1,7 C 96 % 1012,3 hPa 0,0 l/m 0 min 0 min 0 W/m 16,1 km/h (3 Bft) 100,00 %
05.01.2022 20:56 4,4 C 3,9 C 1,7 C 96 % 1012,3 hPa 0,0 l/m 0 min 0 min 0 W/m 12,9 km/h (3 Bft) 100,00 %
05.01.2022 20:58 4,4 C 3,9 C 1,7 C 96 % 1012,3 hPa 0,0 l/m 0 min 0 min 0 W/m 12,9 km/h (3 Bft) 100,00 %
05.01.2022 21:00 4,4 C 3,9 C 1,7 C 96 % 1012,4 hPa 0,0 l/m 0 min 0 min 0 W/m 9,7 km/h (2 Bft) 97,87 %
05.01.2022 21:02 4,4 C 3,9 C 1,7 C 96 % 1012,4 hPa 0,0 l/m 0 min 0 min 0 W/m 6,4 km/h (2 Bft) 100,00 %
05.01.2022 21:04 4,4 C 3,9 C 1,7 C 96 % 1012,4 hPa 0,0 l/m 0 min 0 min 0 W/m 6,4 km/h (2 Bft) 100,00 %
05.01.2022 21:06 4,4 C 3,9 C 2,2 C 96 % 1012,4 hPa 0,0 l/m 0 min 0 min 0 W/m 12,9 km/h (3 Bft) 100,00 %
05.01.2022 21:08 4,4 C 3,9 C 1,7 C 96 % 1012,4 hPa 0,0 l/m 0 min 0 min 0 W/m 12,9 km/h (3 Bft) 100,00 %
05.01.2022 21:10 4,5 C 3,9 C 2,2 C 96 % 1012,4 hPa 0,0 l/m 0 min 0 min 0 W/m 16,1 km/h (3 Bft) 100,00 %
05.01.2022 21:12 4,5 C 3,9 C 2,2 C 96 % 1012,4 hPa 0,0 l/m 0 min 0 min 0 W/m 12,9 km/h (3 Bft) 100,00 %
05.01.2022 21:14 4,5 C 3,9 C 2,2 C 96 % 1012,4 hPa 0,0 l/m 0 min 0 min 0 W/m 12,9 km/h (3 Bft) 100,00 %
05.01.2022 21:16 4,5 C 3,9 C 2,2 C 96 % 1012,5 hPa 0,0 l/m 0 min 0 min 0 W/m 12,9 km/h (3 Bft) 100,00 %
05.01.2022 21:18 4,5 C 3,9 C 2,2 C 96 % 1012,5 hPa 0,0 l/m 0 min 0 min 0 W/m 12,9 km/h (3 Bft) 100,00 %
05.01.2022 21:20 4,5 C 3,9 C 2,2 C 96 % 1012,5 hPa 0,0 l/m 0 min 0 min 0 W/m 16,1 km/h (3 Bft) 100,00 %
05.01.2022 21:22 4,6 C 3,9 C 2,2 C 96 % 1012,6 hPa 0,0 l/m 0 min 0 min 0 W/m 16,1 km/h (3 Bft) 97,87 %
05.01.2022 21:24 4,6 C 3,9 C 2,2 C 96 % 1012,7 hPa 0,0 l/m 0 min 2 min 0 W/m 19,3 km/h (3 Bft) 100,00 %
05.01.2022 21:26 4,6 C 3,9 C 2,2 C 97 % 1012,9 hPa 0,2 l/m 0 min 2 min 0 W/m 22,5 km/h (4 Bft) 100,00 %
05.01.2022 21:28 4,6 C 3,9 C 2,2 C 97 % 1012,7 hPa 0,0 l/m 0 min 2 min 0 W/m 16,1 km/h (3 Bft) 100,00 %
05.01.2022 21:30 4,6 C 3,9 C 2,2 C 97 % 1012,9 hPa 0,2 l/m 0 min 2 min 0 W/m 12,9 km/h (3 Bft) 100,00 %
05.01.2022 21:32 4,6 C 3,9 C 2,2 C 97 % 1013,0 hPa 0,2 l/m 0 min 2 min 0 W/m 16,1 km/h (3 Bft) 100,00 %
05.01.2022 21:34 4,6 C 3,9 C 2,2 C 97 % 1012,9 hPa 0,2 l/m 0 min 2 min 0 W/m 16,1 km/h (3 Bft) 100,00 %
05.01.2022 21:36 4,6 C 3,9 C 2,2 C 97 % 1013,0 hPa 0,4 l/m 0 min 2 min 0 W/m 16,1 km/h (3 Bft) 97,87 %
05.01.2022 21:38 4,5 C 3,9 C 2,2 C 97 % 1013,1 hPa 0,2 l/m 0 min 2 min 0 W/m 12,9 km/h (3 Bft) 100,00 %
05.01.2022 21:40 4,5 C 3,9 C 2,2 C 97 % 1013,0 hPa 0,2 l/m 0 min 2 min 0 W/m 12,9 km/h (3 Bft) 100,00 %
05.01.2022 21:42 4,5 C 3,3 C 1,7 C 96 % 1012,9 hPa 0,0 l/m 0 min 2 min 0 W/m 16,1 km/h (3 Bft) 100,00 %
05.01.2022 21:44 4,4 C 3,3 C 1,7 C 97 % 1013,0 hPa 0,2 l/m 0 min 2 min 0 W/m 6,4 km/h (2 Bft) 98,11 %
05.01.2022 21:46 4,4 C 3,3 C 2,2 C 97 % 1013,0 hPa 0,0 l/m 0 min 0 min 0 W/m 9,7 km/h (2 Bft) 100,00 %
05.01.2022 21:48 4,4 C 3,3 C 2,2 C 97 % 1013,0 hPa 0,0 l/m 0 min 0 min 0 W/m 16,1 km/h (3 Bft) 100,00 %
05.01.2022 21:50 4,4 C 3,3 C 2,2 C 97 % 1013,0 hPa 0,0 l/m 0 min 0 min 0 W/m 19,3 km/h (3 Bft) 100,00 %
05.01.2022 21:52 4,4 C 3,3 C 2,2 C 97 % 1012,9 hPa 0,0 l/m 0 min 0 min 0 W/m 16,1 km/h (3 Bft) 54,55 %
05.01.2022 21:54 4,4 C 3,3 C 1,7 C 97 % 1012,9 hPa 0,0 l/m 0 min 0 min 0 W/m 9,7 km/h (2 Bft) 100,00 %
05.01.2022 21:56 4,3 C 3,3 C 1,7 C 97 % 1013,0 hPa 0,0 l/m 0 min 0 min 0 W/m 9,7 km/h (2 Bft) 100,00 %
05.01.2022 21:58 4,3 C 3,3 C 1,7 C 97 % 1013,1 hPa 0,0 l/m 0 min 0 min 0 W/m 6,4 km/h (2 Bft) 100,00 %
05.01.2022 22:00 4,3 C 3,3 C 1,7 C 97 % 1013,1 hPa 0,0 l/m 0 min 0 min 0 W/m 16,1 km/h (3 Bft) 100,00 %
05.01.2022 22:02 4,3 C 3,3 C 1,7 C 97 % 1013,1 hPa 0,0 l/m 0 min 0 min 0 W/m 16,1 km/h (3 Bft) 97,87 %
05.01.2022 22:04 4,3 C 3,3 C 1,7 C 97 % 1013,1 hPa 0,0 l/m 0 min 0 min 0 W/m 9,7 km/h (2 Bft) 97,87 %
05.01.2022 22:06 4,3 C 3,3 C 1,7 C 97 % 1013,1 hPa 0,0 l/m 0 min 0 min 0 W/m 6,4 km/h (2 Bft) 97,87 %
05.01.2022 22:08 4,3 C 3,3 C 1,7 C 97 % 1013,2 hPa 0,0 l/m 0 min 0 min 0 W/m 12,9 km/h (3 Bft) 97,83 %
05.01.2022 22:10 4,3 C 3,3 C 2,2 C 97 % 1013,1 hPa 0,0 l/m 0 min 0 min 0 W/m 6,4 km/h (2 Bft) 97,87 %
05.01.2022 22:12 4,3 C 3,3 C 2,2 C 97 % 1013,1 hPa 0,0 l/m 0 min 0 min 0 W/m 6,4 km/h (2 Bft) 97,87 %
05.01.2022 22:14 4,3 C 3,3 C 2,2 C 97 % 1013,2 hPa 0,0 l/m 0 min 0 min 0 W/m 9,7 km/h (2 Bft) 97,87 %
05.01.2022 22:16 4,3 C 3,3 C 1,7 C 97 % 1013,2 hPa 0,0 l/m 0 min 0 min 0 W/m 6,4 km/h (2 Bft) 97,87 %
05.01.2022 22:18 4,3 C 3,3 C 1,7 C 97 % 1013,2 hPa 0,0 l/m 0 min 0 min 0 W/m 12,9 km/h (3 Bft) 95,74 %
05.01.2022 22:20 4,3 C 3,3 C 1,7 C 97 % 1013,2 hPa 0,0 l/m 0 min 0 min 0 W/m 9,7 km/h (2 Bft) 95,65 %
05.01.2022 22:22 4,3 C 3,3 C 1,7 C 97 % 1013,2 hPa 0,0 l/m 0 min 0 min 0 W/m 12,9 km/h (3 Bft) 95,74 %
05.01.2022 22:24 4,3 C 3,3 C 1,7 C 97 % 1013,3 hPa 0,0 l/m 0 min 0 min 0 W/m 6,4 km/h (2 Bft) 97,87 %
05.01.2022 22:26 4,3 C 3,3 C 1,7 C 97 % 1013,3 hPa 0,0 l/m 0 min 0 min 0 W/m 19,3 km/h (3 Bft) 97,87 %
05.01.2022 22:28 4,3 C 3,3 C 1,7 C 97 % 1013,3 hPa 0,0 l/m 0 min 0 min 0 W/m 12,9 km/h (3 Bft) 95,74 %
05.01.2022 22:30 4,3 C 3,3 C 1,7 C 97 % 1013,3 hPa 0,0 l/m 0 min 0 min 0 W/m 12,9 km/h (3 Bft) 93,62 %
05.01.2022 22:32 4,3 C 3,3 C 1,7 C 97 % 1013,3 hPa 0,0 l/m 0 min 0 min 0 W/m 9,7 km/h (2 Bft) 95,65 %
05.01.2022 22:34 4,2 C 3,3 C 1,7 C 97 % 1013,2 hPa 0,0 l/m 0 min 0 min 0 W/m 9,7 km/h (2 Bft) 93,62 %
05.01.2022 22:36 4,2 C 3,3 C 1,7 C 97 % 1013,3 hPa 0,0 l/m 0 min 0 min 0 W/m 6,4 km/h (2 Bft) 91,49 %
05.01.2022 22:38 4,2 C 3,3 C 1,7 C 97 % 1013,3 hPa 0,0 l/m 0 min 0 min 0 W/m 6,4 km/h (2 Bft) 95,74 %
05.01.2022 22:40 4,2 C 3,3 C 1,7 C 97 % 1013,3 hPa 0,0 l/m 0 min 0 min 0 W/m 12,9 km/h (3 Bft) 93,62 %
05.01.2022 22:42 4,1 C 3,3 C 1,7 C 97 % 1013,3 hPa 0,0 l/m 0 min 0 min 0 W/m 12,9 km/h (3 Bft) 93,62 %
05.01.2022 22:44 4,1 C 3,3 C 1,7 C 97 % 1013,4 hPa 0,0 l/m 0 min 0 min 0 W/m 9,7 km/h (2 Bft) 95,65 %
05.01.2022 22:46 4,1 C 3,3 C 1,7 C 97 % 1013,4 hPa 0,0 l/m 0 min 0 min 0 W/m 16,1 km/h (3 Bft) 95,74 %
05.01.2022 22:48 4,1 C 3,3 C 1,7 C 97 % 1013,4 hPa 0,0 l/m 0 min 0 min 0 W/m 16,1 km/h (3 Bft) 95,74 %
05.01.2022 22:50 4,0 C 3,3 C 1,7 C 97 % 1013,4 hPa 0,0 l/m 0 min 0 min 0 W/m 12,9 km/h (3 Bft) 95,74 %
05.01.2022 22:52 4,0 C 3,3 C 1,7 C 97 % 1013,5 hPa 0,0 l/m 0 min 0 min 0 W/m 6,4 km/h (2 Bft) 95,74 %
05.01.2022 22:54 3,9 C 3,3 C 1,7 C 97 % 1013,5 hPa 0,0 l/m 0 min 0 min 0 W/m 6,4 km/h (2 Bft) 95,74 %
05.01.2022 22:56 3,9 C 3,3 C 1,7 C 97 % 1013,5 hPa 0,0 l/m 0 min 0 min 0 W/m 16,1 km/h (3 Bft) 97,83 %
05.01.2022 22:58 3,9 C 3,3 C 1,7 C 97 % 1013,6 hPa 0,0 l/m 0 min 0 min 0 W/m 9,7 km/h (2 Bft) 93,62 %
05.01.2022 23:00 3,9 C 3,3 C 1,7 C 97 % 1013,6 hPa 0,0 l/m 0 min 0 min 0 W/m 9,7 km/h (2 Bft) 93,62 %
05.01.2022 23:02 3,9 C 3,3 C 1,7 C 97 % 1013,6 hPa 0,0 l/m 0 min 0 min 0 W/m 9,7 km/h (2 Bft) 95,83 %
05.01.2022 23:04 3,8 C 3,3 C 1,7 C 97 % 1013,6 hPa 0,0 l/m 0 min 0 min 0 W/m 12,9 km/h (3 Bft) 95,74 %
05.01.2022 23:06 3,8 C 3,3 C 1,7 C 97 % 1013,6 hPa 0,0 l/m 0 min 0 min 0 W/m 6,4 km/h (2 Bft) 95,65 %
05.01.2022 23:08 3,8 C 3,3 C 1,7 C 97 % 1013,6 hPa 0,0 l/m 0 min 0 min 0 W/m 16,1 km/h (3 Bft) 95,74 %
05.01.2022 23:10 3,8 C 2,8 C 1,7 C 97 % 1013,6 hPa 0,0 l/m 0 min 0 min 0 W/m 9,7 km/h (2 Bft) 95,74 %
05.01.2022 23:12 3,8 C 2,8 C 1,7 C 97 % 1013,6 hPa 0,0 l/m 0 min 0 min 0 W/m 9,7 km/h (2 Bft) 95,74 %
05.01.2022 23:14 3,8 C 2,8 C 1,7 C 97 % 1013,6 hPa 0,0 l/m 0 min 0 min 0 W/m 16,1 km/h (3 Bft) 97,87 %
05.01.2022 23:16 3,8 C 2,8 C 1,7 C 97 % 1013,7 hPa 0,0 l/m 0 min 0 min 0 W/m 9,7 km/h (2 Bft) 95,74 %
05.01.2022 23:18 3,8 C 2,8 C 1,7 C 97 % 1013,8 hPa 0,0 l/m 0 min 0 min 0 W/m 12,9 km/h (3 Bft) 97,83 %
05.01.2022 23:20 3,8 C 2,8 C 1,7 C 97 % 1013,8 hPa 0,0 l/m 0 min 0 min 0 W/m 9,7 km/h (2 Bft) 100,00 %
05.01.2022 23:22 3,7 C 2,8 C 1,7 C 97 % 1013,7 hPa 0,0 l/m 0 min 0 min 0 W/m 9,7 km/h (2 Bft) 97,87 %
05.01.2022 23:24 3,7 C 2,8 C 1,7 C 97 % 1013,7 hPa 0,0 l/m 0 min 0 min 0 W/m 6,4 km/h (2 Bft) 100,00 %
05.01.2022 23:26 3,7 C 2,8 C 1,7 C 97 % 1013,8 hPa 0,0 l/m 0 min 0 min 0 W/m 6,4 km/h (2 Bft) 97,87 %
05.01.2022 23:28 3,7 C 2,8 C 1,7 C 97 % 1013,8 hPa 0,0 l/m 0 min 0 min 0 W/m 12,9 km/h (3 Bft) 100,00 %
05.01.2022 23:30 3,7 C 2,8 C 1,7 C 97 % 1013,9 hPa 0,0 l/m 0 min 0 min 0 W/m 12,9 km/h (3 Bft) 100,00 %
05.01.2022 23:32 3,7 C 2,8 C 1,7 C 97 % 1013,8 hPa 0,0 l/m 0 min 0 min 0 W/m 6,4 km/h (2 Bft) 97,92 %
05.01.2022 23:34 3,7 C 3,3 C 1,7 C 97 % 1013,8 hPa 0,0 l/m 0 min 0 min 0 W/m 6,4 km/h (2 Bft) 97,87 %
05.01.2022 23:36 3,8 C 3,3 C 1,7 C 97 % 1013,9 hPa 0,0 l/m 0 min 0 min 0 W/m 9,7 km/h (2 Bft) 100,00 %
05.01.2022 23:38 3,8 C 3,3 C 1,7 C 97 % 1013,9 hPa 0,0 l/m 0 min 0 min 0 W/m 9,7 km/h (2 Bft) 100,00 %
05.01.2022 23:40 3,8 C 3,3 C 1,7 C 97 % 1014,0 hPa 0,0 l/m 0 min 0 min 0 W/m 9,7 km/h (2 Bft) 97,87 %
05.01.2022 23:42 3,7 C 2,8 C 1,7 C 97 % 1013,9 hPa 0,0 l/m 0 min 0 min 0 W/m 9,7 km/h (2 Bft) 100,00 %
05.01.2022 23:44 3,7 C 2,8 C 1,7 C 97 % 1014,0 hPa 0,0 l/m 0 min 0 min 0 W/m 6,4 km/h (2 Bft) 100,00 %
05.01.2022 23:46 3,7 C 2,8 C 1,7 C 97 % 1014,0 hPa 0,0 l/m 0 min 0 min 0 W/m 12,9 km/h (3 Bft) 97,87 %
05.01.2022 23:48 3,7 C 2,8 C 1,1 C 97 % 1014,0 hPa 0,0 l/m 0 min 0 min 0 W/m 12,9 km/h (3 Bft) 100,00 %
05.01.2022 23:50 3,7 C 2,8 C 1,1 C 97 % 1014,0 hPa 0,0 l/m 0 min 0 min 0 W/m 6,4 km/h (2 Bft) 100,00 %
05.01.2022 23:52 3,7 C 2,8 C 1,1 C 97 % 1014,1 hPa 0,0 l/m 0 min 0 min 0 W/m 6,4 km/h (2 Bft) 100,00 %
05.01.2022 23:54 3,6 C 2,8 C 1,1 C 97 % 1014,2 hPa 0,0 l/m 0 min 0 min 0 W/m 12,9 km/h (3 Bft) 100,00 %
05.01.2022 23:56 3,6 C 2,8 C 1,1 C 97 % 1014,2 hPa 0,0 l/m 0 min 0 min 0 W/m 6,4 km/h (2 Bft) 95,74 %
05.01.2022 23:58 3,6 C 2,8 C 1,1 C 97 % 1014,2 hPa 0,0 l/m 0 min 0 min 0 W/m 12,9 km/h (3 Bft) 97,87 %
_ Min-Zeit 05:56 05:36 05:22 10:34 00:00 - - - - 01:28 07:08
Minimum _ 1,4 C 0,6 C -0,6 C 91 % 1000,7 hPa - - - - 3,2 km/h (1 Bft) 47,37 %
_ Max-Zeit 16:16 12:32 13:38 01:52 23:54 21:36 12:28 00:43 12:30 10:32 00:43
Maximum _ 5,1 C 5,0 C 2,2 C 97 % 1014,2 hPa 0,4 l/m 2 min 5 min 242 W/m 48,3 km/h
SO (6 Bft)
100,00 %
Durchschnitt _ 3,5 C 2,9 C 1,2 C 94 % 1006,5 hPa #4,2 l/m #8 min. #6:22 h 52 W/m 17,2 km/h (3 Bft) 97,17 %
© 2022 W. Hausmann